Wetterdaten: Mittwoch, 16.01.2019
Datum Zeit Temp. Aussen Temp. o. S. +5cm Feuchte Auss Luftdruck Regen Sonnenschein Regendauer Solar Windben Empfang
16.01.2019 00:00 6,4 C 6,1 C 5,6 C 91 % 1013,6 hPa 0,0 l/m 0 min 0 min 0 W/m 16,1 km/h (3 Bft) 100,00 %
16.01.2019 00:02 6,4 C 6,1 C 5,6 C 91 % 1013,6 hPa 0,0 l/m 0 min 0 min 0 W/m 25,7 km/h (4 Bft) 94,87 %
16.01.2019 00:04 6,4 C 6,1 C 5,6 C 91 % 1013,5 hPa 0,0 l/m 0 min 0 min 0 W/m 16,1 km/h (3 Bft) 97,87 %
16.01.2019 00:07 6,4 C 6,1 C 5,6 C 91 % 1013,6 hPa 0,0 l/m 0 min 0 min 0 W/m 19,3 km/h (3 Bft) 98,57 %
16.01.2019 00:08 6,4 C 6,1 C 5,6 C 91 % 1013,6 hPa 0,0 l/m 0 min 0 min 0 W/m 9,7 km/h (2 Bft) 100,00 %
16.01.2019 00:10 6,4 C 6,1 C 5,6 C 91 % 1013,6 hPa 0,0 l/m 0 min 0 min 0 W/m 22,5 km/h (4 Bft) 100,00 %
16.01.2019 00:12 6,4 C 6,1 C 5,6 C 91 % 1013,6 hPa 0,0 l/m 0 min 0 min 0 W/m 29,0 km/h (5 Bft) 100,00 %
16.01.2019 00:14 6,4 C 6,1 C 5,6 C 91 % 1013,5 hPa 0,0 l/m 0 min 0 min 0 W/m 16,1 km/h (3 Bft) 97,87 %
16.01.2019 00:16 6,4 C 6,1 C 5,6 C 91 % 1013,4 hPa 0,0 l/m 0 min 0 min 0 W/m 19,3 km/h (3 Bft) 97,87 %
16.01.2019 00:18 6,4 C 6,1 C 5,6 C 91 % 1013,6 hPa 0,0 l/m 0 min 0 min 0 W/m 12,9 km/h (3 Bft) 97,87 %
16.01.2019 00:20 6,4 C 6,1 C 5,6 C 91 % 1013,6 hPa 0,0 l/m 0 min 0 min 0 W/m 16,1 km/h (3 Bft) 95,74 %
16.01.2019 00:22 6,4 C 6,1 C 5,6 C 91 % 1013,5 hPa 0,0 l/m 0 min 0 min 0 W/m 12,9 km/h (3 Bft) 97,83 %
16.01.2019 00:24 6,4 C 6,1 C 5,6 C 91 % 1013,5 hPa 0,0 l/m 0 min 0 min 0 W/m 12,9 km/h (3 Bft) 97,87 %
16.01.2019 00:26 6,4 C 6,1 C 5,6 C 91 % 1013,5 hPa 0,0 l/m 0 min 0 min 0 W/m 12,9 km/h (3 Bft) 97,87 %
16.01.2019 00:28 6,4 C 6,1 C 5,6 C 91 % 1013,5 hPa 0,0 l/m 0 min 0 min 0 W/m 35,4 km/h (5 Bft) 95,74 %
16.01.2019 00:30 6,4 C 6,1 C 5,6 C 91 % 1013,5 hPa 0,0 l/m 0 min 0 min 0 W/m 16,1 km/h (3 Bft) 93,62 %
16.01.2019 00:32 6,4 C 6,1 C 5,6 C 91 % 1013,5 hPa 0,0 l/m 0 min 0 min 0 W/m 12,9 km/h (3 Bft) 93,62 %
16.01.2019 00:34 6,4 C 6,1 C 5,6 C 91 % 1013,4 hPa 0,0 l/m 0 min 0 min 0 W/m 16,1 km/h (3 Bft) 95,65 %
16.01.2019 00:36 6,5 C 6,1 C 5,6 C 91 % 1013,6 hPa 0,0 l/m 0 min 0 min 0 W/m 9,7 km/h (2 Bft) 93,62 %
16.01.2019 00:38 6,4 C 6,1 C 5,6 C 91 % 1013,6 hPa 0,0 l/m 0 min 0 min 0 W/m 22,5 km/h (4 Bft) 95,74 %
16.01.2019 00:40 6,5 C 6,1 C 5,6 C 91 % 1013,5 hPa 0,0 l/m 0 min 0 min 0 W/m 12,9 km/h (3 Bft) 95,74 %
16.01.2019 00:42 6,5 C 6,1 C 5,6 C 91 % 1013,5 hPa 0,0 l/m 0 min 0 min 0 W/m 16,1 km/h (3 Bft) 91,49 %
16.01.2019 00:44 6,5 C 6,1 C 5,6 C 91 % 1013,5 hPa 0,0 l/m 0 min 0 min 0 W/m 22,5 km/h (4 Bft) 93,48 %
16.01.2019 00:46 6,5 C 6,1 C 5,6 C 91 % 1013,4 hPa 0,0 l/m 0 min 0 min 0 W/m 12,9 km/h (3 Bft) 93,62 %
16.01.2019 00:48 6,4 C 6,1 C 5,6 C 91 % 1013,3 hPa 0,0 l/m 0 min 0 min 0 W/m 16,1 km/h (3 Bft) 91,49 %
16.01.2019 00:50 6,4 C 6,1 C 5,6 C 92 % 1013,5 hPa 0,0 l/m 0 min 0 min 0 W/m 16,1 km/h (3 Bft) 93,62 %
16.01.2019 00:52 6,4 C 6,1 C 5,6 C 92 % 1013,5 hPa 0,0 l/m 0 min 0 min 0 W/m 9,7 km/h (2 Bft) 91,49 %
16.01.2019 00:54 6,4 C 6,1 C 5,6 C 92 % 1013,5 hPa 0,0 l/m 0 min 0 min 0 W/m 9,7 km/h (2 Bft) 93,62 %
16.01.2019 00:56 6,4 C 6,1 C 5,0 C 92 % 1013,5 hPa 0,0 l/m 0 min 0 min 0 W/m 9,7 km/h (2 Bft) 93,48 %
16.01.2019 00:58 6,4 C 6,1 C 5,0 C 92 % 1013,5 hPa 0,0 l/m 0 min 0 min 0 W/m 12,9 km/h (3 Bft) 93,62 %
16.01.2019 01:00 6,4 C 6,1 C 5,0 C 92 % 1013,5 hPa 0,0 l/m 0 min 0 min 0 W/m 9,7 km/h (2 Bft) 91,49 %
16.01.2019 01:02 6,4 C 5,6 C 5,0 C 92 % 1013,4 hPa 0,0 l/m 0 min 0 min 0 W/m 19,3 km/h (3 Bft) 89,36 %
16.01.2019 01:04 6,4 C 5,6 C 5,0 C 92 % 1013,4 hPa 0,0 l/m 0 min 0 min 0 W/m 16,1 km/h (3 Bft) 93,62 %
16.01.2019 01:06 6,4 C 5,6 C 5,0 C 92 % 1013,3 hPa 0,0 l/m 0 min 0 min 0 W/m 9,7 km/h (2 Bft) 93,62 %
16.01.2019 01:08 6,4 C 5,6 C 5,0 C 92 % 1013,3 hPa 0,0 l/m 0 min 0 min 0 W/m 19,3 km/h (3 Bft) 95,65 %
16.01.2019 01:10 6,4 C 5,6 C 5,0 C 92 % 1013,3 hPa 0,0 l/m 0 min 0 min 0 W/m 32,2 km/h (5 Bft) 95,74 %
16.01.2019 01:12 6,4 C 5,6 C 5,0 C 92 % 1013,2 hPa 0,0 l/m 0 min 0 min 0 W/m 22,5 km/h (4 Bft) 95,74 %
16.01.2019 01:14 6,4 C 5,6 C 5,0 C 92 % 1013,3 hPa 0,0 l/m 0 min 0 min 0 W/m 19,3 km/h (3 Bft) 95,74 %
16.01.2019 01:16 6,4 C 5,6 C 5,0 C 92 % 1013,2 hPa 0,0 l/m 0 min 0 min 0 W/m 25,7 km/h (4 Bft) 95,74 %
16.01.2019 01:18 6,4 C 5,6 C 5,0 C 92 % 1013,2 hPa 0,0 l/m 0 min 0 min 0 W/m 19,3 km/h (3 Bft) 95,74 %
16.01.2019 01:20 6,4 C 5,6 C 5,0 C 92 % 1013,2 hPa 0,0 l/m 0 min 0 min 0 W/m 16,1 km/h (3 Bft) 93,48 %
16.01.2019 01:22 6,4 C 5,6 C 5,0 C 92 % 1013,1 hPa 0,0 l/m 0 min 0 min 0 W/m 19,3 km/h (3 Bft) 93,62 %
16.01.2019 01:24 6,4 C 5,6 C 5,0 C 92 % 1013,0 hPa 0,0 l/m 0 min 0 min 0 W/m 22,5 km/h (4 Bft) 95,74 %
16.01.2019 01:26 6,4 C 5,6 C 5,0 C 92 % 1013,0 hPa 0,0 l/m 0 min 0 min 0 W/m 25,7 km/h (4 Bft) 97,87 %
16.01.2019 01:28 6,3 C 5,6 C 5,0 C 93 % 1013,1 hPa 0,0 l/m 0 min 0 min 0 W/m 22,5 km/h (4 Bft) 97,87 %
16.01.2019 01:30 6,3 C 5,6 C 5,0 C 93 % 1012,9 hPa 0,0 l/m 0 min 0 min 0 W/m 22,5 km/h (4 Bft) 100,00 %
16.01.2019 01:32 6,3 C 5,6 C 5,0 C 93 % 1012,9 hPa 0,0 l/m 0 min 0 min 0 W/m 25,7 km/h (4 Bft) 97,83 %
16.01.2019 01:34 6,3 C 5,6 C 5,0 C 93 % 1013,0 hPa 0,0 l/m 0 min 0 min 0 W/m 29,0 km/h (5 Bft) 97,87 %
16.01.2019 01:36 6,3 C 5,6 C 5,0 C 93 % 1013,0 hPa 0,0 l/m 0 min 0 min 0 W/m 16,1 km/h (3 Bft) 97,92 %
16.01.2019 01:38 6,3 C 5,6 C 5,0 C 93 % 1012,9 hPa 0,0 l/m 0 min 0 min 0 W/m 12,9 km/h (3 Bft) 95,74 %
16.01.2019 01:40 6,3 C 5,6 C 5,0 C 93 % 1012,9 hPa 0,0 l/m 0 min 0 min 0 W/m 25,7 km/h (4 Bft) 100,00 %
16.01.2019 01:42 6,3 C 5,6 C 5,0 C 93 % 1012,9 hPa 0,0 l/m 0 min 0 min 0 W/m 19,3 km/h (3 Bft) 100,00 %
16.01.2019 01:44 6,2 C 5,6 C 5,0 C 93 % 1012,9 hPa 0,0 l/m 0 min 0 min 0 W/m 12,9 km/h (3 Bft) 95,74 %
16.01.2019 01:46 6,2 C 5,6 C 5,0 C 93 % 1012,8 hPa 0,0 l/m 0 min 0 min 0 W/m 22,5 km/h (4 Bft) 100,00 %
16.01.2019 01:48 6,2 C 5,6 C 5,0 C 93 % 1012,9 hPa 0,0 l/m 0 min 0 min 0 W/m 19,3 km/h (3 Bft) 97,87 %
16.01.2019 01:50 6,2 C 5,6 C 5,0 C 93 % 1013,0 hPa 0,0 l/m 0 min 0 min 0 W/m 19,3 km/h (3 Bft) 100,00 %
16.01.2019 01:52 6,2 C 5,6 C 5,0 C 93 % 1013,0 hPa 0,0 l/m 0 min 0 min 0 W/m 22,5 km/h (4 Bft) 100,00 %
16.01.2019 01:54 6,2 C 5,6 C 5,0 C 93 % 1012,8 hPa 0,0 l/m 0 min 0 min 0 W/m 16,1 km/h (3 Bft) 100,00 %
16.01.2019 01:56 6,2 C 5,6 C 5,0 C 93 % 1012,8 hPa 0,0 l/m 0 min 0 min 0 W/m 9,7 km/h (2 Bft) 97,87 %
16.01.2019 01:58 6,2 C 5,6 C 5,0 C 93 % 1012,9 hPa 0,0 l/m 0 min 0 min 0 W/m 19,3 km/h (3 Bft) 100,00 %
16.01.2019 02:00 6,2 C 5,6 C 5,0 C 93 % 1012,8 hPa 0,0 l/m 0 min 0 min 0 W/m 12,9 km/h (3 Bft) 97,87 %
16.01.2019 02:02 6,2 C 5,6 C 5,0 C 93 % 1012,9 hPa 0,0 l/m 0 min 0 min 0 W/m 16,1 km/h (3 Bft) 100,00 %
16.01.2019 02:04 6,2 C 5,6 C 5,0 C 93 % 1013,0 hPa 0,0 l/m 0 min 0 min 0 W/m 16,1 km/h (3 Bft) 100,00 %
16.01.2019 02:06 6,2 C 5,6 C 5,0 C 94 % 1012,9 hPa 0,0 l/m 0 min 0 min 0 W/m 12,9 km/h (3 Bft) 97,83 %
16.01.2019 02:08 6,2 C 5,6 C 5,0 C 94 % 1012,9 hPa 0,0 l/m 0 min 0 min 0 W/m 19,3 km/h (3 Bft) 93,62 %
16.01.2019 02:10 6,2 C 5,6 C 5,0 C 94 % 1012,8 hPa 0,0 l/m 0 min 0 min 0 W/m 12,9 km/h (3 Bft) 100,00 %
16.01.2019 02:12 6,2 C 5,6 C 5,0 C 94 % 1012,7 hPa 0,0 l/m 0 min 0 min 0 W/m 12,9 km/h (3 Bft) 97,87 %
16.01.2019 02:14 6,2 C 5,6 C 5,0 C 94 % 1012,7 hPa 0,0 l/m 0 min 0 min 0 W/m 16,1 km/h (3 Bft) 100,00 %
16.01.2019 02:16 6,2 C 5,6 C 5,0 C 94 % 1012,7 hPa 0,0 l/m 0 min 0 min 0 W/m 22,5 km/h (4 Bft) 100,00 %
16.01.2019 02:18 6,2 C 5,6 C 5,0 C 94 % 1012,7 hPa 0,0 l/m 0 min 0 min 0 W/m 22,5 km/h (4 Bft) 100,00 %
16.01.2019 02:20 6,2 C 5,6 C 5,0 C 94 % 1012,8 hPa 0,0 l/m 0 min 0 min 0 W/m 19,3 km/h (3 Bft) 100,00 %
16.01.2019 02:22 6,1 C 5,6 C 5,0 C 94 % 1012,9 hPa 0,0 l/m 0 min 0 min 0 W/m 35,4 km/h (5 Bft) 100,00 %
16.01.2019 02:24 6,1 C 5,6 C 5,0 C 94 % 1012,7 hPa 0,0 l/m 0 min 0 min 0 W/m 16,1 km/h (3 Bft) 100,00 %
16.01.2019 02:26 6,1 C 5,6 C 5,0 C 94 % 1012,7 hPa 0,0 l/m 0 min 0 min 0 W/m 19,3 km/h (3 Bft) 100,00 %
16.01.2019 02:28 6,1 C 5,6 C 5,0 C 94 % 1012,8 hPa 0,0 l/m 0 min 0 min 0 W/m 16,1 km/h (3 Bft) 100,00 %
16.01.2019 02:30 6,1 C 5,6 C 5,0 C 94 % 1012,6 hPa 0,0 l/m 0 min 0 min 0 W/m 25,7 km/h (4 Bft) 100,00 %
16.01.2019 02:32 6,1 C 5,6 C 5,0 C 94 % 1012,6 hPa 0,0 l/m 0 min 0 min 0 W/m 22,5 km/h (4 Bft) 100,00 %
16.01.2019 02:34 6,1 C 5,6 C 5,0 C 94 % 1012,6 hPa 0,0 l/m 0 min 0 min 0 W/m 19,3 km/h (3 Bft) 100,00 %
16.01.2019 02:36 6,1 C 5,6 C 5,0 C 94 % 1012,6 hPa 0,0 l/m 0 min 0 min 0 W/m 16,1 km/h (3 Bft) 100,00 %
16.01.2019 02:38 6,0 C 5,6 C 5,0 C 94 % 1012,8 hPa 0,0 l/m 0 min 0 min 0 W/m 19,3 km/h (3 Bft) 100,00 %
16.01.2019 02:40 6,0 C 5,6 C 5,0 C 94 % 1012,7 hPa 0,0 l/m 0 min 0 min 0 W/m 35,4 km/h (5 Bft) 100,00 %
16.01.2019 02:42 6,0 C 5,6 C 5,0 C 94 % 1012,6 hPa 0,0 l/m 0 min 0 min 0 W/m 19,3 km/h (3 Bft) 100,00 %
16.01.2019 02:44 6,0 C 5,6 C 5,0 C 94 % 1012,5 hPa 0,0 l/m 0 min 0 min 0 W/m 16,1 km/h (3 Bft) 97,83 %
16.01.2019 02:46 6,0 C 5,6 C 5,0 C 94 % 1012,8 hPa 0,0 l/m 0 min 0 min 0 W/m 25,7 km/h (4 Bft) 100,00 %
16.01.2019 02:48 6,0 C 5,6 C 5,0 C 94 % 1012,6 hPa 0,0 l/m 0 min 0 min 0 W/m 22,5 km/h (4 Bft) 100,00 %
16.01.2019 02:50 6,0 C 5,6 C 5,0 C 94 % 1012,7 hPa 0,0 l/m 0 min 0 min 0 W/m 22,5 km/h (4 Bft) 100,00 %
16.01.2019 02:52 6,0 C 5,6 C 5,0 C 94 % 1012,6 hPa 0,0 l/m 0 min 0 min 0 W/m 32,2 km/h (5 Bft) 97,87 %
16.01.2019 02:54 6,0 C 5,6 C 5,0 C 94 % 1012,6 hPa 0,0 l/m 0 min 0 min 0 W/m 16,1 km/h (3 Bft) 100,00 %
16.01.2019 02:56 6,0 C 5,6 C 5,0 C 94 % 1012,5 hPa 0,0 l/m 0 min 0 min 0 W/m 22,5 km/h (4 Bft) 100,00 %
16.01.2019 02:58 6,0 C 5,6 C 5,0 C 94 % 1012,6 hPa 0,0 l/m 0 min 0 min 0 W/m 25,7 km/h (4 Bft) 97,87 %
16.01.2019 03:00 6,0 C 5,6 C 5,0 C 94 % 1012,5 hPa 0,0 l/m 0 min 0 min 0 W/m 32,2 km/h (5 Bft) 97,87 %
16.01.2019 03:02 6,0 C 5,6 C 5,0 C 94 % 1012,6 hPa 0,0 l/m 0 min 0 min 0 W/m 29,0 km/h (5 Bft) 97,87 %
16.01.2019 03:04 6,0 C 5,6 C 5,0 C 94 % 1012,5 hPa 0,0 l/m 0 min 0 min 0 W/m 29,0 km/h (5 Bft) 97,87 %
16.01.2019 03:06 6,0 C 5,6 C 5,0 C 94 % 1012,5 hPa 0,0 l/m 0 min 0 min 0 W/m 12,9 km/h (3 Bft) 100,00 %
16.01.2019 03:08 6,0 C 5,6 C 5,0 C 94 % 1012,7 hPa 0,0 l/m 0 min 0 min 0 W/m 12,9 km/h (3 Bft) 95,65 %
16.01.2019 03:10 6,0 C 5,6 C 5,0 C 94 % 1012,7 hPa 0,0 l/m 0 min 0 min 0 W/m 25,7 km/h (4 Bft) 97,87 %
16.01.2019 03:12 6,0 C 5,6 C 5,0 C 94 % 1012,7 hPa 0,0 l/m 0 min 0 min 0 W/m 19,3 km/h (3 Bft) 100,00 %
16.01.2019 03:14 6,0 C 5,6 C 5,0 C 94 % 1012,7 hPa 0,0 l/m 0 min 0 min 0 W/m 22,5 km/h (4 Bft) 95,74 %
16.01.2019 03:16 5,9 C 5,6 C 5,0 C 94 % 1012,7 hPa 0,0 l/m 0 min 0 min 0 W/m 16,1 km/h (3 Bft) 95,74 %
16.01.2019 03:18 6,0 C 5,6 C 5,0 C 94 % 1012,6 hPa 0,0 l/m 0 min 0 min 0 W/m 16,1 km/h (3 Bft) 95,65 %
16.01.2019 03:20 5,9 C 5,6 C 5,0 C 94 % 1012,5 hPa 0,0 l/m 0 min 0 min 0 W/m 19,3 km/h (3 Bft) 95,74 %
16.01.2019 03:22 5,9 C 5,6 C 5,0 C 94 % 1012,5 hPa 0,0 l/m 0 min 0 min 0 W/m 19,3 km/h (3 Bft) 93,62 %
16.01.2019 03:24 5,9 C 5,6 C 5,0 C 94 % 1012,5 hPa 0,0 l/m 0 min 0 min 0 W/m 12,9 km/h (3 Bft) 93,62 %
16.01.2019 03:26 5,9 C 5,6 C 5,0 C 94 % 1012,5 hPa 0,0 l/m 0 min 0 min 0 W/m 19,3 km/h (3 Bft) 95,74 %
16.01.2019 03:28 5,9 C 5,6 C 5,0 C 94 % 1012,5 hPa 0,0 l/m 0 min 0 min 0 W/m 12,9 km/h (3 Bft) 95,74 %
16.01.2019 03:30 5,9 C 5,6 C 5,0 C 94 % 1012,4 hPa 0,0 l/m 0 min 0 min 0 W/m 12,9 km/h (3 Bft) 95,65 %
16.01.2019 03:32 5,9 C 5,6 C 5,0 C 94 % 1012,4 hPa 0,0 l/m 0 min 0 min 0 W/m 16,1 km/h (3 Bft) 93,62 %
16.01.2019 03:34 5,9 C 5,6 C 5,0 C 94 % 1012,6 hPa 0,0 l/m 0 min 0 min 0 W/m 22,5 km/h (4 Bft) 95,74 %
16.01.2019 03:36 5,9 C 5,6 C 5,0 C 94 % 1012,4 hPa 0,0 l/m 0 min 0 min 0 W/m 19,3 km/h (3 Bft) 93,62 %
16.01.2019 03:38 5,9 C 5,6 C 5,0 C 94 % 1012,5 hPa 0,0 l/m 0 min 0 min 0 W/m 16,1 km/h (3 Bft) 95,74 %
16.01.2019 03:40 5,9 C 5,6 C 5,0 C 94 % 1012,4 hPa 0,0 l/m 0 min 0 min 0 W/m 16,1 km/h (3 Bft) 95,74 %
16.01.2019 03:42 5,9 C 5,6 C 5,0 C 94 % 1012,4 hPa 0,0 l/m 0 min 0 min 0 W/m 9,7 km/h (2 Bft) 93,48 %
16.01.2019 03:44 5,9 C 5,6 C 5,0 C 94 % 1012,3 hPa 0,0 l/m 0 min 0 min 0 W/m 16,1 km/h (3 Bft) 95,74 %
16.01.2019 03:46 5,9 C 5,6 C 5,0 C 94 % 1012,4 hPa 0,0 l/m 0 min 0 min 0 W/m 16,1 km/h (3 Bft) 93,62 %
16.01.2019 03:48 5,9 C 5,6 C 5,0 C 94 % 1012,4 hPa 0,0 l/m 0 min 0 min 0 W/m 12,9 km/h (3 Bft) 93,62 %
16.01.2019 03:50 5,9 C 5,6 C 5,0 C 94 % 1012,2 hPa 0,0 l/m 0 min 0 min 0 W/m 12,9 km/h (3 Bft) 93,62 %
16.01.2019 03:52 5,9 C 5,6 C 5,0 C 94 % 1012,2 hPa 0,0 l/m 0 min 0 min 0 W/m 12,9 km/h (3 Bft) 93,62 %
16.01.2019 03:54 5,9 C 5,6 C 5,0 C 94 % 1012,2 hPa 0,0 l/m 0 min 0 min 0 W/m 25,7 km/h (4 Bft) 93,48 %
16.01.2019 03:56 5,9 C 5,6 C 5,0 C 94 % 1012,3 hPa 0,0 l/m 0 min 0 min 0 W/m 9,7 km/h (2 Bft) 95,74 %
16.01.2019 03:58 5,9 C 5,6 C 5,0 C 94 % 1012,3 hPa 0,0 l/m 0 min 0 min 0 W/m 9,7 km/h (2 Bft) 95,74 %
16.01.2019 04:00 5,9 C 5,6 C 5,0 C 94 % 1012,2 hPa 0,0 l/m 0 min 0 min 0 W/m 16,1 km/h (3 Bft) 93,62 %
16.01.2019 04:02 5,9 C 5,6 C 5,0 C 94 % 1012,3 hPa 0,0 l/m 0 min 0 min 0 W/m 22,5 km/h (4 Bft) 100,00 %
16.01.2019 04:04 5,9 C 5,6 C 5,0 C 94 % 1012,3 hPa 0,0 l/m 0 min 0 min 0 W/m 19,3 km/h (3 Bft) 100,00 %
16.01.2019 04:06 5,9 C 5,6 C 5,0 C 94 % 1012,3 hPa 0,0 l/m 0 min 0 min 0 W/m 19,3 km/h (3 Bft) 100,00 %
16.01.2019 04:11 5,9 C 5,6 C 5,0 C 94 % 1012,2 hPa 0,0 l/m 0 min 0 min 0 W/m 19,3 km/h (3 Bft) 93,62 %
16.01.2019 04:12 5,9 C 5,6 C 5,0 C 94 % 1012,2 hPa 0,0 l/m 0 min 0 min 0 W/m 9,7 km/h (2 Bft) 100,00 %
16.01.2019 04:14 5,9 C 5,6 C 5,0 C 94 % 1012,2 hPa 0,0 l/m 0 min 0 min 0 W/m 9,7 km/h (2 Bft) 100,00 %
16.01.2019 04:16 5,9 C 5,6 C 5,0 C 94 % 1012,0 hPa 0,0 l/m 0 min 0 min 0 W/m 22,5 km/h (4 Bft) 95,65 %
16.01.2019 04:18 5,9 C 5,6 C 5,0 C 94 % 1012,1 hPa 0,0 l/m 0 min 0 min 0 W/m 12,9 km/h (3 Bft) 95,74 %
16.01.2019 04:20 5,9 C 5,6 C 5,0 C 93 % 1012,0 hPa 0,0 l/m 0 min 0 min 0 W/m 9,7 km/h (2 Bft) 97,87 %
16.01.2019 04:22 5,9 C 5,6 C 5,0 C 93 % 1012,0 hPa 0,0 l/m 0 min 0 min 0 W/m 19,3 km/h (3 Bft) 97,87 %
16.01.2019 04:24 5,9 C 5,0 C 4,4 C 93 % 1012,1 hPa 0,0 l/m 0 min 0 min 0 W/m 16,1 km/h (3 Bft) 97,87 %
16.01.2019 04:26 5,9 C 5,0 C 4,4 C 93 % 1012,1 hPa 0,0 l/m 0 min 0 min 0 W/m 16,1 km/h (3 Bft) 97,87 %
16.01.2019 04:28 5,9 C 5,0 C 4,4 C 93 % 1012,0 hPa 0,0 l/m 0 min 0 min 0 W/m 16,1 km/h (3 Bft) 97,83 %
16.01.2019 04:30 5,9 C 5,0 C 4,4 C 93 % 1011,9 hPa 0,0 l/m 0 min 0 min 0 W/m 16,1 km/h (3 Bft) 97,87 %
16.01.2019 04:32 5,9 C 5,0 C 4,4 C 93 % 1012,0 hPa 0,0 l/m 0 min 0 min 0 W/m 19,3 km/h (3 Bft) 95,74 %
16.01.2019 04:34 5,9 C 5,0 C 4,4 C 93 % 1011,9 hPa 0,0 l/m 0 min 0 min 0 W/m 19,3 km/h (3 Bft) 97,87 %
16.01.2019 04:36 5,9 C 5,0 C 4,4 C 93 % 1012,0 hPa 0,0 l/m 0 min 0 min 0 W/m 16,1 km/h (3 Bft) 97,87 %
16.01.2019 04:38 5,9 C 5,0 C 4,4 C 93 % 1011,8 hPa 0,0 l/m 0 min 0 min 0 W/m 12,9 km/h (3 Bft) 97,87 %
16.01.2019 04:40 5,9 C 5,0 C 4,4 C 93 % 1011,8 hPa 0,0 l/m 0 min 0 min 0 W/m 29,0 km/h (5 Bft) 97,87 %
16.01.2019 04:42 5,9 C 5,0 C 4,4 C 93 % 1011,8 hPa 0,0 l/m 0 min 0 min 0 W/m 19,3 km/h (3 Bft) 100,00 %
16.01.2019 04:44 5,9 C 5,0 C 4,4 C 93 % 1011,6 hPa 0,0 l/m 0 min 0 min 0 W/m 19,3 km/h (3 Bft) 100,00 %
16.01.2019 04:46 5,9 C 5,0 C 4,4 C 93 % 1011,6 hPa 0,0 l/m 0 min 0 min 0 W/m 16,1 km/h (3 Bft) 100,00 %
16.01.2019 04:48 5,8 C 5,0 C 4,4 C 93 % 1011,6 hPa 0,0 l/m 0 min 0 min 0 W/m 22,5 km/h (4 Bft) 100,00 %
16.01.2019 04:50 5,8 C 5,0 C 4,4 C 93 % 1011,5 hPa 0,0 l/m 0 min 0 min 0 W/m 16,1 km/h (3 Bft) 97,87 %
16.01.2019 04:52 5,8 C 5,0 C 4,4 C 93 % 1011,5 hPa 0,0 l/m 0 min 0 min 0 W/m 22,5 km/h (4 Bft) 97,83 %
16.01.2019 04:54 5,8 C 5,6 C 4,4 C 93 % 1011,5 hPa 0,0 l/m 0 min 0 min 0 W/m 22,5 km/h (4 Bft) 100,00 %
16.01.2019 04:56 5,8 C 5,6 C 5,0 C 93 % 1011,4 hPa 0,0 l/m 0 min 0 min 0 W/m 25,7 km/h (4 Bft) 97,87 %
16.01.2019 04:58 5,8 C 5,6 C 5,0 C 93 % 1011,5 hPa 0,0 l/m 0 min 0 min 0 W/m 35,4 km/h (5 Bft) 97,87 %
16.01.2019 05:00 5,8 C 5,6 C 5,0 C 93 % 1011,4 hPa 0,0 l/m 0 min 0 min 0 W/m 29,0 km/h (5 Bft) 100,00 %
16.01.2019 05:02 5,8 C 5,6 C 5,0 C 93 % 1011,4 hPa 0,0 l/m 0 min 0 min 0 W/m 25,7 km/h (4 Bft) 100,00 %
16.01.2019 05:04 5,8 C 5,6 C 5,0 C 93 % 1011,3 hPa 0,0 l/m 0 min 0 min 0 W/m 19,3 km/h (3 Bft) 100,00 %
16.01.2019 05:06 5,8 C 5,6 C 5,0 C 93 % 1011,3 hPa 0,0 l/m 0 min 0 min 0 W/m 22,5 km/h (4 Bft) 100,00 %
16.01.2019 05:08 5,8 C 5,6 C 5,0 C 93 % 1011,4 hPa 0,0 l/m 0 min 0 min 0 W/m 22,5 km/h (4 Bft) 100,00 %
16.01.2019 05:10 5,8 C 5,6 C 5,0 C 93 % 1011,2 hPa 0,0 l/m 0 min 0 min 0 W/m 12,9 km/h (3 Bft) 100,00 %
16.01.2019 05:12 5,8 C 5,6 C 5,0 C 93 % 1011,2 hPa 0,0 l/m 0 min 0 min 0 W/m 16,1 km/h (3 Bft) 97,87 %
16.01.2019 05:14 5,9 C 5,6 C 5,0 C 93 % 1011,2 hPa 0,0 l/m 0 min 0 min 0 W/m 22,5 km/h (4 Bft) 100,00 %
16.01.2019 05:19 5,9 C 5,6 C 5,0 C 93 % 1011,1 hPa 0,0 l/m 0 min 0 min 0 W/m 25,7 km/h (4 Bft) 100,00 %
16.01.2019 05:20 5,9 C 5,6 C 5,0 C 93 % 1011,1 hPa 0,0 l/m 0 min 0 min 0 W/m 9,7 km/h (2 Bft) 100,00 %
16.01.2019 05:22 5,9 C 5,6 C 5,0 C 92 % 1011,1 hPa 0,0 l/m 0 min 0 min 0 W/m 16,1 km/h (3 Bft) 97,87 %
16.01.2019 05:24 5,9 C 5,6 C 5,0 C 92 % 1011,1 hPa 0,0 l/m 0 min 0 min 0 W/m 16,1 km/h (3 Bft) 97,83 %
16.01.2019 05:26 5,9 C 5,6 C 5,0 C 92 % 1011,1 hPa 0,0 l/m 0 min 0 min 0 W/m 9,7 km/h (2 Bft) 100,00 %
16.01.2019 05:28 5,9 C 5,6 C 5,0 C 92 % 1011,0 hPa 0,0 l/m 0 min 0 min 0 W/m 19,3 km/h (3 Bft) 100,00 %
16.01.2019 05:30 5,9 C 5,6 C 5,0 C 92 % 1011,0 hPa 0,0 l/m 0 min 0 min 0 W/m 32,2 km/h (5 Bft) 100,00 %
16.01.2019 05:32 5,9 C 5,6 C 5,0 C 92 % 1011,0 hPa 0,0 l/m 0 min 0 min 0 W/m 19,3 km/h (3 Bft) 100,00 %
16.01.2019 05:34 5,9 C 5,6 C 5,0 C 92 % 1011,0 hPa 0,0 l/m 0 min 0 min 0 W/m 12,9 km/h (3 Bft) 100,00 %
16.01.2019 05:36 6,0 C 5,6 C 5,0 C 92 % 1010,9 hPa 0,0 l/m 0 min 0 min 0 W/m 16,1 km/h (3 Bft) 97,83 %
16.01.2019 05:38 6,0 C 5,6 C 5,0 C 91 % 1010,9 hPa 0,0 l/m 0 min 0 min 0 W/m 19,3 km/h (3 Bft) 97,92 %
16.01.2019 05:40 6,0 C 5,6 C 5,0 C 91 % 1010,8 hPa 0,0 l/m 0 min 0 min 0 W/m 16,1 km/h (3 Bft) 100,00 %
16.01.2019 05:42 6,1 C 5,6 C 5,0 C 91 % 1010,9 hPa 0,0 l/m 0 min 0 min 0 W/m 16,1 km/h (3 Bft) 97,87 %
16.01.2019 05:44 6,1 C 5,6 C 5,0 C 91 % 1010,8 hPa 0,0 l/m 0 min 0 min 0 W/m 16,1 km/h (3 Bft) 97,87 %
16.01.2019 05:46 6,1 C 5,6 C 5,0 C 91 % 1010,9 hPa 0,0 l/m 0 min 0 min 0 W/m 12,9 km/h (3 Bft) 97,87 %
16.01.2019 05:48 6,1 C 5,6 C 5,0 C 91 % 1010,8 hPa 0,0 l/m 0 min 0 min 0 W/m 12,9 km/h (3 Bft) 95,65 %
16.01.2019 05:50 6,1 C 5,6 C 5,0 C 91 % 1010,8 hPa 0,0 l/m 0 min 0 min 0 W/m 9,7 km/h (2 Bft) 97,87 %
16.01.2019 05:52 6,1 C 5,6 C 5,0 C 91 % 1010,8 hPa 0,0 l/m 0 min 0 min 0 W/m 16,1 km/h (3 Bft) 97,87 %
16.01.2019 05:54 6,1 C 5,6 C 5,0 C 90 % 1010,8 hPa 0,0 l/m 0 min 0 min 0 W/m 25,7 km/h (4 Bft) 97,87 %
16.01.2019 05:56 6,1 C 5,6 C 5,0 C 90 % 1010,7 hPa 0,0 l/m 0 min 0 min 0 W/m 16,1 km/h (3 Bft) 95,74 %
16.01.2019 05:58 6,1 C 5,6 C 5,0 C 90 % 1010,7 hPa 0,0 l/m 0 min 0 min 0 W/m 16,1 km/h (3 Bft) 97,87 %
16.01.2019 06:00 6,1 C 5,6 C 5,0 C 90 % 1010,7 hPa 0,0 l/m 0 min 0 min 0 W/m 12,9 km/h (3 Bft) 93,48 %
16.01.2019 06:02 6,1 C 5,6 C 5,0 C 90 % 1010,8 hPa 0,0 l/m 0 min 0 min 0 W/m 25,7 km/h (4 Bft) 95,24 %
16.01.2019 06:04 6,1 C 5,6 C 5,0 C 90 % 1010,8 hPa 0,0 l/m 0 min 0 min 0 W/m 16,1 km/h (3 Bft) 96,00 %
16.01.2019 06:08 6,1 C 5,6 C 5,0 C 90 % 1010,7 hPa 0,0 l/m 0 min 0 min 0 W/m 25,7 km/h (4 Bft) 96,77 %
16.01.2019 06:10 6,1 C 5,6 C 5,0 C 90 % 1010,6 hPa 0,0 l/m 0 min 0 min 0 W/m 22,5 km/h (4 Bft) 97,87 %
16.01.2019 06:12 6,1 C 5,6 C 5,0 C 90 % 1010,6 hPa 0,0 l/m 0 min 0 min 0 W/m 22,5 km/h (4 Bft) 97,87 %
16.01.2019 06:14 6,1 C 5,6 C 5,0 C 90 % 1010,5 hPa 0,0 l/m 0 min 0 min 0 W/m 12,9 km/h (3 Bft) 93,62 %
16.01.2019 06:16 6,1 C 5,6 C 5,0 C 89 % 1010,5 hPa 0,0 l/m 0 min 0 min 0 W/m 22,5 km/h (4 Bft) 95,74 %
16.01.2019 06:18 6,1 C 5,6 C 5,0 C 89 % 1010,5 hPa 0,0 l/m 0 min 0 min 0 W/m 25,7 km/h (4 Bft) 93,62 %
16.01.2019 06:20 6,1 C 5,6 C 5,0 C 89 % 1010,5 hPa 0,0 l/m 0 min 0 min 0 W/m 22,5 km/h (4 Bft) 95,65 %
16.01.2019 06:22 6,1 C 5,6 C 5,0 C 89 % 1010,4 hPa 0,0 l/m 0 min 0 min 0 W/m 19,3 km/h (3 Bft) 95,74 %
16.01.2019 06:24 6,1 C 5,6 C 5,0 C 89 % 1010,5 hPa 0,0 l/m 0 min 0 min 0 W/m 32,2 km/h (5 Bft) 93,62 %
16.01.2019 06:26 6,1 C 5,6 C 5,0 C 89 % 1010,5 hPa 0,0 l/m 0 min 0 min 0 W/m 29,0 km/h (5 Bft) 95,74 %
16.01.2019 06:28 6,1 C 5,6 C 5,0 C 89 % 1010,3 hPa 0,0 l/m 0 min 0 min 0 W/m 29,0 km/h (5 Bft) 97,87 %
16.01.2019 06:30 6,1 C 5,6 C 5,0 C 89 % 1010,3 hPa 0,0 l/m 0 min 0 min 0 W/m 25,7 km/h (4 Bft) 97,87 %
16.01.2019 06:32 6,1 C 5,6 C 5,0 C 89 % 1010,4 hPa 0,0 l/m 0 min 0 min 0 W/m 22,5 km/h (4 Bft) 95,65 %
16.01.2019 06:34 6,1 C 5,6 C 5,0 C 89 % 1010,3 hPa 0,0 l/m 0 min 0 min 0 W/m 19,3 km/h (3 Bft) 95,74 %
16.01.2019 06:36 6,1 C 5,6 C 5,0 C 89 % 1010,3 hPa 0,0 l/m 0 min 0 min 0 W/m 25,7 km/h (4 Bft) 97,87 %
16.01.2019 06:38 6,2 C 5,6 C 5,0 C 88 % 1010,3 hPa 0,0 l/m 0 min 0 min 0 W/m 12,9 km/h (3 Bft) 97,87 %
16.01.2019 06:40 6,1 C 5,6 C 5,0 C 88 % 1010,3 hPa 0,0 l/m 0 min 0 min 0 W/m 12,9 km/h (3 Bft) 97,87 %
16.01.2019 06:42 6,2 C 5,6 C 5,0 C 88 % 1010,3 hPa 0,0 l/m 0 min 0 min 0 W/m 19,3 km/h (3 Bft) 97,87 %
16.01.2019 06:44 6,2 C 5,6 C 5,0 C 88 % 1010,3 hPa 0,0 l/m 0 min 0 min 0 W/m 12,9 km/h (3 Bft) 95,65 %
16.01.2019 06:46 6,1 C 5,6 C 5,0 C 88 % 1010,3 hPa 0,0 l/m 0 min 0 min 0 W/m 22,5 km/h (4 Bft) 97,87 %
16.01.2019 06:48 6,1 C 5,6 C 5,0 C 88 % 1010,3 hPa 0,0 l/m 0 min 0 min 0 W/m 32,2 km/h (5 Bft) 97,87 %
16.01.2019 06:50 6,2 C 5,6 C 5,0 C 88 % 1010,3 hPa 0,0 l/m 0 min 0 min 0 W/m 16,1 km/h (3 Bft) 97,87 %
16.01.2019 06:52 6,2 C 5,6 C 5,0 C 88 % 1010,4 hPa 0,0 l/m 0 min 0 min 0 W/m 22,5 km/h (4 Bft) 97,87 %
16.01.2019 06:54 6,2 C 5,6 C 5,0 C 88 % 1010,4 hPa 0,0 l/m 0 min 0 min 0 W/m 16,1 km/h (3 Bft) 95,74 %
16.01.2019 06:56 6,2 C 5,6 C 5,0 C 88 % 1010,3 hPa 0,0 l/m 0 min 0 min 0 W/m 19,3 km/h (3 Bft) 95,65 %
16.01.2019 06:58 6,2 C 5,6 C 5,0 C 88 % 1010,2 hPa 0,0 l/m 0 min 0 min 0 W/m 9,7 km/h (2 Bft) 97,87 %
16.01.2019 07:00 6,2 C 5,6 C 5,0 C 88 % 1010,3 hPa 0,0 l/m 0 min 0 min 0 W/m 12,9 km/h (3 Bft) 95,74 %
16.01.2019 07:02 6,2 C 5,6 C 5,0 C 87 % 1010,3 hPa 0,0 l/m 0 min 0 min 0 W/m 25,7 km/h (4 Bft) 95,74 %
16.01.2019 07:04 6,2 C 5,6 C 5,0 C 87 % 1010,2 hPa 0,0 l/m 0 min 0 min 0 W/m 16,1 km/h (3 Bft) 95,74 %
16.01.2019 07:06 6,2 C 5,6 C 5,0 C 87 % 1010,1 hPa 0,0 l/m 0 min 0 min 0 W/m 12,9 km/h (3 Bft) 95,65 %
16.01.2019 07:08 6,2 C 5,6 C 5,0 C 87 % 1010,2 hPa 0,0 l/m 0 min 0 min 0 W/m 16,1 km/h (3 Bft) 97,87 %
16.01.2019 07:10 6,2 C 5,6 C 5,0 C 87 % 1010,2 hPa 0,0 l/m 0 min 0 min 0 W/m 19,3 km/h (3 Bft) 97,87 %
16.01.2019 07:12 6,2 C 5,6 C 5,0 C 87 % 1010,2 hPa 0,0 l/m 0 min 0 min 0 W/m 32,2 km/h (5 Bft) 100,00 %
16.01.2019 07:14 6,2 C 5,6 C 5,0 C 87 % 1010,1 hPa 0,0 l/m 0 min 0 min 0 W/m 16,1 km/h (3 Bft) 95,74 %
16.01.2019 07:16 6,2 C 5,6 C 5,0 C 87 % 1010,1 hPa 0,0 l/m 0 min 0 min 0 W/m 29,0 km/h (5 Bft) 93,62 %
16.01.2019 07:18 6,2 C 5,6 C 5,0 C 87 % 1010,0 hPa 0,0 l/m 0 min 0 min 0 W/m 12,9 km/h (3 Bft) 97,83 %
16.01.2019 07:20 6,2 C 6,1 C 5,0 C 86 % 1010,1 hPa 0,0 l/m 0 min 0 min 0 W/m 32,2 km/h (5 Bft) 97,87 %
16.01.2019 07:22 6,2 C 5,6 C 5,0 C 86 % 1010,1 hPa 0,0 l/m 0 min 0 min 0 W/m 16,1 km/h (3 Bft) 95,74 %
16.01.2019 07:24 6,2 C 5,6 C 5,0 C 86 % 1010,1 hPa 0,0 l/m 0 min 0 min 0 W/m 12,9 km/h (3 Bft) 97,87 %
16.01.2019 07:26 6,2 C 5,6 C 5,0 C 86 % 1010,1 hPa 0,0 l/m 0 min 0 min 0 W/m 22,5 km/h (4 Bft) 97,87 %
16.01.2019 07:28 6,2 C 5,6 C 5,0 C 86 % 1010,1 hPa 0,0 l/m 0 min 0 min 0 W/m 22,5 km/h (4 Bft) 97,87 %
16.01.2019 07:30 6,2 C 5,6 C 5,0 C 86 % 1010,1 hPa 0,0 l/m 0 min 0 min 0 W/m 19,3 km/h (3 Bft) 95,65 %
16.01.2019 07:32 6,2 C 6,1 C 5,0 C 86 % 1010,1 hPa 0,0 l/m 0 min 0 min 0 W/m 25,7 km/h (4 Bft) 97,87 %
16.01.2019 07:34 6,3 C 6,1 C 5,0 C 86 % 1010,1 hPa 0,0 l/m 0 min 0 min 0 W/m 25,7 km/h (4 Bft) 95,74 %
16.01.2019 07:36 6,3 C 6,1 C 5,0 C 86 % 1010,0 hPa 0,0 l/m 0 min 0 min 0 W/m 25,7 km/h (4 Bft) 97,87 %
16.01.2019 07:38 6,3 C 6,1 C 5,0 C 85 % 1010,1 hPa 0,0 l/m 0 min 0 min 0 W/m 19,3 km/h (3 Bft) 95,74 %
16.01.2019 07:40 6,3 C 5,6 C 5,0 C 85 % 1010,0 hPa 0,0 l/m 0 min 0 min 0 W/m 16,1 km/h (3 Bft) 97,87 %
16.01.2019 07:42 6,3 C 5,6 C 5,0 C 85 % 1010,0 hPa 0,0 l/m 0 min 0 min 0 W/m 22,5 km/h (4 Bft) 97,83 %
16.01.2019 07:44 6,3 C 5,6 C 5,0 C 85 % 1010,0 hPa 0,0 l/m 0 min 0 min 0 W/m 22,5 km/h (4 Bft) 97,87 %
16.01.2019 07:46 6,3 C 5,6 C 5,0 C 85 % 1009,9 hPa 0,0 l/m 0 min 0 min 0 W/m 22,5 km/h (4 Bft) 97,87 %
16.01.2019 07:48 6,3 C 5,6 C 5,0 C 85 % 1009,9 hPa 0,0 l/m 0 min 0 min 0 W/m 19,3 km/h (3 Bft) 97,87 %
16.01.2019 07:50 6,3 C 5,6 C 5,0 C 85 % 1009,8 hPa 0,0 l/m 0 min 0 min 0 W/m 35,4 km/h (5 Bft) 95,74 %
16.01.2019 07:52 6,3 C 5,6 C 5,0 C 85 % 1009,8 hPa 0,0 l/m 0 min 0 min 0 W/m 25,7 km/h (4 Bft) 97,87 %
16.01.2019 07:54 6,3 C 5,6 C 5,0 C 85 % 1009,8 hPa 0,0 l/m 0 min 0 min 0 W/m 19,3 km/h (3 Bft) 97,83 %
16.01.2019 07:56 6,3 C 5,6 C 5,0 C 85 % 1009,7 hPa 0,0 l/m 0 min 0 min 0 W/m 12,9 km/h (3 Bft) 100,00 %
16.01.2019 07:58 6,3 C 5,6 C 5,0 C 85 % 1009,7 hPa 0,0 l/m 0 min 0 min 0 W/m 35,4 km/h (5 Bft) 97,87 %
16.01.2019 08:00 6,3 C 5,6 C 5,0 C 85 % 1009,7 hPa 0,0 l/m 0 min 0 min 0 W/m 19,3 km/h (3 Bft) 100,00 %
16.01.2019 08:02 6,3 C 5,6 C 5,0 C 85 % 1009,7 hPa 0,0 l/m 0 min 0 min 0 W/m 19,3 km/h (3 Bft) 97,87 %
16.01.2019 08:04 6,3 C 5,6 C 5,0 C 85 % 1009,7 hPa 0,0 l/m 0 min 0 min 0 W/m 29,0 km/h (5 Bft) 100,00 %
16.01.2019 08:06 6,3 C 5,6 C 5,0 C 85 % 1009,7 hPa 0,0 l/m 0 min 0 min 0 W/m 22,5 km/h (4 Bft) 95,74 %
16.01.2019 08:08 6,3 C 5,6 C 5,0 C 85 % 1009,7 hPa 0,0 l/m 0 min 0 min 0 W/m 16,1 km/h (3 Bft) 100,00 %
16.01.2019 08:10 6,3 C 5,6 C 5,0 C 85 % 1009,9 hPa 0,0 l/m 0 min 0 min 0 W/m 25,7 km/h (4 Bft) 100,00 %
16.01.2019 08:12 6,3 C 5,6 C 5,0 C 85 % 1009,8 hPa 0,0 l/m 0 min 0 min 0 W/m 22,5 km/h (4 Bft) 100,00 %
16.01.2019 08:14 6,3 C 5,6 C 5,0 C 85 % 1009,8 hPa 0,0 l/m 0 min 0 min 0 W/m 19,3 km/h (3 Bft) 97,87 %
16.01.2019 08:16 6,2 C 5,6 C 5,0 C 84 % 1009,9 hPa 0,0 l/m 0 min 0 min 0 W/m 22,5 km/h (4 Bft) 97,87 %
16.01.2019 08:18 6,2 C 5,6 C 5,0 C 84 % 1009,9 hPa 0,0 l/m 0 min 0 min 0 W/m 25,7 km/h (4 Bft) 97,83 %
16.01.2019 08:20 6,2 C 5,6 C 5,0 C 84 % 1009,8 hPa 0,0 l/m 0 min 0 min 0 W/m 25,7 km/h (4 Bft) 95,74 %
16.01.2019 08:22 6,2 C 5,6 C 5,0 C 84 % 1009,7 hPa 0,0 l/m 0 min 0 min 0 W/m 32,2 km/h (5 Bft) 97,87 %
16.01.2019 08:24 6,2 C 5,6 C 5,0 C 84 % 1009,8 hPa 0,0 l/m 0 min 0 min 0 W/m 22,5 km/h (4 Bft) 97,87 %
16.01.2019 08:26 6,2 C 5,6 C 5,0 C 84 % 1009,7 hPa 0,0 l/m 0 min 0 min 0 W/m 19,3 km/h (3 Bft) 97,87 %
16.01.2019 08:28 6,2 C 5,6 C 5,0 C 84 % 1009,7 hPa 0,0 l/m 0 min 0 min 0 W/m 32,2 km/h (5 Bft) 97,87 %
16.01.2019 08:30 6,2 C 5,6 C 5,0 C 84 % 1009,8 hPa 0,0 l/m 0 min 0 min 0 W/m 35,4 km/h (5 Bft) 97,83 %
16.01.2019 08:32 6,2 C 5,6 C 5,0 C 84 % 1009,7 hPa 0,0 l/m 0 min 0 min 0 W/m 29,0 km/h (5 Bft) 97,87 %
16.01.2019 08:34 6,2 C 5,6 C 5,0 C 84 % 1009,9 hPa 0,0 l/m 0 min 0 min 0 W/m 29,0 km/h (5 Bft) 95,74 %
16.01.2019 08:36 6,2 C 5,6 C 5,0 C 84 % 1009,8 hPa 0,0 l/m 0 min 0 min 0 W/m 25,7 km/h (4 Bft) 95,74 %
16.01.2019 08:38 6,2 C 5,6 C 5,0 C 84 % 1009,8 hPa 0,0 l/m 0 min 0 min 0 W/m 22,5 km/h (4 Bft) 95,74 %
16.01.2019 08:40 6,2 C 5,6 C 5,0 C 84 % 1009,7 hPa 0,0 l/m 0 min 0 min 0 W/m 32,2 km/h (5 Bft) 97,83 %
16.01.2019 08:42 6,2 C 5,6 C 5,0 C 84 % 1009,7 hPa 0,0 l/m 0 min 0 min 0 W/m 32,2 km/h (5 Bft) 95,74 %
16.01.2019 08:44 6,2 C 5,6 C 5,0 C 84 % 1009,8 hPa 0,0 l/m 0 min 0 min 3 W/m 16,1 km/h (3 Bft) 95,74 %
16.01.2019 08:46 6,2 C 5,6 C 5,0 C 84 % 1009,7 hPa 0,0 l/m 0 min 0 min 5 W/m 38,6 km/h (5 Bft) 97,87 %
16.01.2019 08:48 6,2 C 5,6 C 5,0 C 84 % 1009,7 hPa 0,0 l/m 0 min 0 min 6 W/m 32,2 km/h (5 Bft) 97,87 %
16.01.2019 08:50 6,2 C 5,6 C 5,0 C 84 % 1009,7 hPa 0,0 l/m 0 min 0 min 7 W/m 35,4 km/h (5 Bft) 97,87 %
16.01.2019 08:52 6,2 C 5,6 C 5,0 C 84 % 1009,8 hPa 0,0 l/m 0 min 0 min 8 W/m 25,7 km/h (4 Bft) 97,83 %
16.01.2019 08:54 6,2 C 5,6 C 5,0 C 84 % 1009,8 hPa 0,0 l/m 0 min 0 min 9 W/m 25,7 km/h (4 Bft) 95,74 %
16.01.2019 08:56 6,2 C 5,6 C 5,0 C 83 % 1009,8 hPa 0,0 l/m 0 min 0 min 10 W/m 25,7 km/h (4 Bft) 97,87 %
16.01.2019 08:58 6,2 C 5,6 C 5,0 C 83 % 1009,7 hPa 0,0 l/m 0 min 0 min 11 W/m 25,7 km/h (4 Bft) 100,00 %
16.01.2019 09:00 6,2 C 5,6 C 5,0 C 83 % 1009,9 hPa 0,0 l/m 0 min 0 min 11 W/m 29,0 km/h (5 Bft) 93,62 %
16.01.2019 09:02 6,2 C 5,6 C 5,0 C 83 % 1009,8 hPa 0,0 l/m 0 min 0 min 11 W/m 19,3 km/h (3 Bft) 97,87 %
16.01.2019 09:04 6,1 C 5,6 C 5,0 C 83 % 1009,8 hPa 0,0 l/m 0 min 0 min 12 W/m 19,3 km/h (3 Bft) 95,65 %
16.01.2019 09:06 6,1 C 5,6 C 5,0 C 83 % 1009,8 hPa 0,0 l/m 0 min 0 min 12 W/m 29,0 km/h (5 Bft) 93,62 %
16.01.2019 09:08 6,1 C 5,6 C 5,0 C 83 % 1009,8 hPa 0,0 l/m 0 min 0 min 11 W/m 22,5 km/h (4 Bft) 97,87 %
16.01.2019 09:10 6,1 C 5,6 C 5,0 C 83 % 1009,8 hPa 0,0 l/m 0 min 0 min 11 W/m 22,5 km/h (4 Bft) 95,74 %
16.01.2019 09:12 6,1 C 5,6 C 5,0 C 83 % 1009,8 hPa 0,0 l/m 0 min 0 min 11 W/m 32,2 km/h (5 Bft) 100,00 %
16.01.2019 09:14 6,1 C 5,6 C 5,0 C 83 % 1009,7 hPa 0,0 l/m 0 min 0 min 12 W/m 29,0 km/h (5 Bft) 95,65 %
16.01.2019 09:16 6,1 C 5,6 C 5,0 C 83 % 1009,7 hPa 0,0 l/m 0 min 0 min 14 W/m 35,4 km/h (5 Bft) 97,87 %
16.01.2019 09:18 6,1 C 5,6 C 5,0 C 83 % 1009,8 hPa 0,0 l/m 0 min 0 min 17 W/m 25,7 km/h (4 Bft) 97,87 %
16.01.2019 09:20 6,1 C 5,6 C 5,0 C 83 % 1009,8 hPa 0,0 l/m 0 min 0 min 20 W/m 25,7 km/h (4 Bft) 97,87 %
16.01.2019 09:22 6,1 C 5,6 C 5,0 C 83 % 1009,9 hPa 0,0 l/m 0 min 0 min 24 W/m 25,7 km/h (4 Bft) 97,87 %
16.01.2019 09:24 6,1 C 5,6 C 5,0 C 83 % 1009,8 hPa 0,0 l/m 0 min 0 min 26 W/m 19,3 km/h (3 Bft) 97,87 %
16.01.2019 09:26 6,1 C 5,6 C 5,0 C 83 % 1009,9 hPa 0,0 l/m 0 min 0 min 26 W/m 29,0 km/h (5 Bft) 97,83 %
16.01.2019 09:28 6,1 C 5,6 C 5,0 C 83 % 1009,8 hPa 0,0 l/m 0 min 0 min 26 W/m 38,6 km/h (5 Bft) 97,87 %
16.01.2019 09:30 6,1 C 5,6 C 5,0 C 83 % 1009,8 hPa 0,0 l/m 0 min 0 min 25 W/m 29,0 km/h (5 Bft) 97,87 %
16.01.2019 09:32 6,1 C 5,6 C 5,0 C 83 % 1009,8 hPa 0,0 l/m 0 min 0 min 22 W/m 32,2 km/h (5 Bft) 95,74 %
16.01.2019 09:34 6,1 C 5,6 C 5,0 C 83 % 1009,7 hPa 0,0 l/m 0 min 0 min 19 W/m 32,2 km/h (5 Bft) 97,87 %
16.01.2019 09:36 6,1 C 5,6 C 5,0 C 83 % 1009,7 hPa 0,0 l/m 0 min 0 min 21 W/m 38,6 km/h (5 Bft) 97,87 %
16.01.2019 09:38 6,1 C 5,6 C 5,0 C 83 % 1009,7 hPa 0,0 l/m 0 min 0 min 24 W/m 19,3 km/h (3 Bft) 97,83 %
16.01.2019 09:40 6,1 C 5,6 C 5,0 C 83 % 1009,7 hPa 0,0 l/m 0 min 0 min 25 W/m 22,5 km/h (4 Bft) 95,74 %
16.01.2019 09:42 6,1 C 5,6 C 5,0 C 83 % 1009,6 hPa 0,0 l/m 0 min 0 min 27 W/m 38,6 km/h (5 Bft) 97,87 %
16.01.2019 09:44 6,1 C 5,6 C 5,0 C 83 % 1009,7 hPa 0,0 l/m 0 min 0 min 32 W/m 32,2 km/h (5 Bft) 97,87 %
16.01.2019 09:46 6,1 C 5,6 C 5,0 C 83 % 1009,7 hPa 0,0 l/m 0 min 0 min 33 W/m 35,4 km/h (5 Bft) 97,87 %
16.01.2019 09:48 6,1 C 5,6 C 5,0 C 83 % 1009,8 hPa 0,0 l/m 0 min 0 min 32 W/m 22,5 km/h (4 Bft) 97,87 %
16.01.2019 09:50 6,1 C 5,6 C 5,0 C 83 % 1009,8 hPa 0,0 l/m 0 min 0 min 32 W/m 29,0 km/h (5 Bft) 97,83 %
16.01.2019 09:52 6,1 C 5,6 C 5,0 C 83 % 1009,7 hPa 0,0 l/m 0 min 0 min 38 W/m 25,7 km/h (4 Bft) 95,74 %
16.01.2019 09:54 6,1 C 5,6 C 5,0 C 83 % 1009,7 hPa 0,0 l/m 0 min 0 min 43 W/m 32,2 km/h (5 Bft) 97,87 %
16.01.2019 09:56 6,1 C 5,6 C 5,0 C 83 % 1009,7 hPa 0,0 l/m 0 min 0 min 46 W/m 38,6 km/h (5 Bft) 95,74 %
16.01.2019 09:58 6,1 C 5,6 C 5,0 C 83 % 1009,7 hPa 0,0 l/m 0 min 0 min 51 W/m 22,5 km/h (4 Bft) 97,87 %
16.01.2019 10:00 6,1 C 5,6 C 5,0 C 83 % 1009,8 hPa 0,0 l/m 0 min 0 min 56 W/m 22,5 km/h (4 Bft) 95,74 %
16.01.2019 10:02 6,1 C 5,6 C 5,0 C 83 % 1009,7 hPa 0,0 l/m 0 min 0 min 60 W/m 35,4 km/h (5 Bft) 93,48 %
16.01.2019 10:04 6,1 C 5,6 C 5,0 C 83 % 1009,7 hPa 0,0 l/m 0 min 0 min 59 W/m 35,4 km/h (5 Bft) 95,74 %
16.01.2019 10:06 6,1 C 5,6 C 5,0 C 83 % 1009,7 hPa 0,0 l/m 0 min 0 min 55 W/m 22,5 km/h (4 Bft) 95,74 %
16.01.2019 10:08 6,1 C 5,6 C 5,0 C 83 % 1009,8 hPa 0,0 l/m 0 min 0 min 51 W/m 29,0 km/h (5 Bft) 100,00 %
16.01.2019 10:10 6,1 C 5,6 C 5,0 C 83 % 1009,7 hPa 0,0 l/m 0 min 0 min 50 W/m 22,5 km/h (4 Bft) 100,00 %
16.01.2019 10:12 6,1 C 5,6 C 5,0 C 83 % 1009,7 hPa 0,0 l/m 0 min 0 min 53 W/m 32,2 km/h (5 Bft) 100,00 %
16.01.2019 10:14 6,1 C 5,6 C 5,0 C 83 % 1009,7 hPa 0,0 l/m 0 min 0 min 51 W/m 19,3 km/h (3 Bft) 100,00 %
16.01.2019 10:16 6,1 C 5,6 C 5,0 C 83 % 1009,7 hPa 0,0 l/m 0 min 0 min 47 W/m 16,1 km/h (3 Bft) 100,00 %
16.01.2019 10:18 6,1 C 5,6 C 5,0 C 83 % 1009,7 hPa 0,0 l/m 0 min 0 min 48 W/m 29,0 km/h (5 Bft) 100,00 %
16.01.2019 10:20 6,1 C 5,6 C 5,0 C 83 % 1009,7 hPa 0,0 l/m 0 min 0 min 51 W/m 25,7 km/h (4 Bft) 93,62 %
16.01.2019 10:22 6,1 C 5,6 C 5,0 C 83 % 1009,7 hPa 0,0 l/m 0 min 0 min 53 W/m 32,2 km/h (5 Bft) 97,87 %
16.01.2019 10:24 6,1 C 5,6 C 5,0 C 83 % 1009,7 hPa 0,0 l/m 0 min 0 min 53 W/m 22,5 km/h (4 Bft) 100,00 %
16.01.2019 10:26 6,1 C 5,6 C 5,0 C 83 % 1009,6 hPa 0,0 l/m 0 min 0 min 54 W/m 25,7 km/h (4 Bft) 97,87 %
16.01.2019 10:28 6,0 C 5,6 C 5,0 C 83 % 1009,5 hPa 0,0 l/m 0 min 0 min 62 W/m 35,4 km/h (5 Bft) 97,87 %
16.01.2019 10:30 6,0 C 5,6 C 5,0 C 83 % 1009,5 hPa 0,0 l/m 0 min 0 min 67 W/m 32,2 km/h (5 Bft) 95,74 %
16.01.2019 10:32 6,0 C 5,6 C 5,0 C 83 % 1009,4 hPa 0,0 l/m 0 min 0 min 71 W/m 19,3 km/h (3 Bft) 95,74 %
16.01.2019 10:34 6,0 C 5,6 C 5,0 C 83 % 1009,3 hPa 0,0 l/m 0 min 0 min 76 W/m 32,2 km/h (5 Bft) 97,87 %
16.01.2019 10:36 6,0 C 5,6 C 5,0 C 83 % 1009,3 hPa 0,0 l/m 0 min 0 min 74 W/m 29,0 km/h (5 Bft) 97,83 %
16.01.2019 10:38 6,0 C 5,6 C 5,0 C 83 % 1009,3 hPa 0,0 l/m 0 min 0 min 66 W/m 29,0 km/h (5 Bft) 97,87 %
16.01.2019 10:40 6,0 C 5,6 C 5,0 C 83 % 1009,3 hPa 0,0 l/m 0 min 0 min 61 W/m 38,6 km/h (5 Bft) 95,74 %
16.01.2019 10:42 6,0 C 5,6 C 5,0 C 83 % 1009,3 hPa 0,0 l/m 0 min 0 min 58 W/m 25,7 km/h (4 Bft) 93,62 %
16.01.2019 10:44 6,0 C 5,6 C 5,0 C 82 % 1009,2 hPa 0,0 l/m 0 min 0 min 58 W/m 32,2 km/h (5 Bft) 97,87 %
16.01.2019 10:46 6,0 C 5,6 C 5,0 C 82 % 1009,2 hPa 0,0 l/m 0 min 0 min 59 W/m 22,5 km/h (4 Bft) 97,87 %
16.01.2019 10:48 5,9 C 5,6 C 5,0 C 82 % 1009,3 hPa 0,0 l/m 0 min 0 min 62 W/m 29,0 km/h (5 Bft) 97,83 %
16.01.2019 10:50 5,9 C 5,6 C 5,0 C 82 % 1009,3 hPa 0,0 l/m 0 min 0 min 64 W/m 25,7 km/h (4 Bft) 95,74 %
16.01.2019 10:52 5,9 C 5,6 C 5,0 C 82 % 1009,3 hPa 0,0 l/m 0 min 0 min 66 W/m 16,1 km/h (3 Bft) 97,87 %
16.01.2019 10:54 5,9 C 5,6 C 5,0 C 82 % 1009,2 hPa 0,0 l/m 0 min 0 min 70 W/m 25,7 km/h (4 Bft) 93,62 %
16.01.2019 10:56 5,9 C 5,6 C 5,0 C 83 % 1009,2 hPa 0,0 l/m 0 min 0 min 73 W/m 16,1 km/h (3 Bft) 91,49 %
16.01.2019 10:58 5,9 C 5,6 C 5,0 C 83 % 1009,2 hPa 0,0 l/m 0 min 0 min 75 W/m 45,1 km/h (6 Bft) 95,74 %
16.01.2019 11:00 5,9 C 5,6 C 5,0 C 83 % 1009,2 hPa 0,0 l/m 0 min 0 min 75 W/m 19,3 km/h (3 Bft) 95,65 %
16.01.2019 11:02 5,9 C 5,6 C 5,0 C 83 % 1009,2 hPa 0,0 l/m 0 min 0 min 69 W/m 19,3 km/h (3 Bft) 93,62 %
16.01.2019 11:04 5,9 C 5,6 C 5,0 C 83 % 1009,2 hPa 0,0 l/m 0 min 0 min 64 W/m 19,3 km/h (3 Bft) 95,92 %
16.01.2019 11:06 5,9 C 5,6 C 5,0 C 82 % 1009,0 hPa 0,0 l/m 0 min 0 min 63 W/m 25,7 km/h (4 Bft) 95,83 %
16.01.2019 11:08 5,9 C 5,6 C 5,0 C 82 % 1009,0 hPa 0,0 l/m 0 min 0 min 63 W/m 38,6 km/h (5 Bft) 95,74 %
16.01.2019 11:10 5,9 C 5,6 C 5,0 C 82 % 1009,0 hPa 0,0 l/m 0 min 0 min 62 W/m 22,5 km/h (4 Bft) 97,14 %
16.01.2019 11:12 5,9 C 5,6 C 5,0 C 82 % 1009,0 hPa 0,0 l/m 0 min 0 min 63 W/m 22,5 km/h (4 Bft) 93,62 %
16.01.2019 11:14 5,9 C 5,6 C 5,0 C 82 % 1009,1 hPa 0,0 l/m 0 min 0 min 62 W/m 29,0 km/h (5 Bft) 95,65 %
16.01.2019 11:16 5,9 C 5,6 C 5,0 C 82 % 1009,3 hPa 0,0 l/m 0 min 0 min 54 W/m 12,9 km/h (3 Bft) 95,74 %
16.01.2019 11:18 5,9 C 5,6 C 5,0 C 83 % 1009,1 hPa 0,0 l/m 0 min 0 min 56 W/m 22,5 km/h (4 Bft) 97,87 %
16.01.2019 11:20 5,9 C 5,6 C 5,0 C 83 % 1009,0 hPa 0,0 l/m 0 min 0 min 72 W/m 25,7 km/h (4 Bft) 97,87 %
16.01.2019 11:22 5,9 C 5,6 C 5,0 C 83 % 1009,0 hPa 0,0 l/m 0 min 0 min 78 W/m 25,7 km/h (4 Bft) 97,87 %
16.01.2019 11:24 5,9 C 5,6 C 5,0 C 82 % 1008,9 hPa 0,0 l/m 0 min 0 min 81 W/m 22,5 km/h (4 Bft) 97,87 %
16.01.2019 11:26 5,9 C 5,6 C 5,0 C 83 % 1008,9 hPa 0,0 l/m 0 min 0 min 87 W/m 29,0 km/h (5 Bft) 97,83 %
16.01.2019 11:28 5,9 C 6,1 C 5,6 C 83 % 1008,9 hPa 0,0 l/m 0 min 0 min 86 W/m 22,5 km/h (4 Bft) 95,74 %
16.01.2019 11:30 5,9 C 6,1 C 5,0 C 83 % 1009,0 hPa 0,0 l/m 0 min 0 min 85 W/m 25,7 km/h (4 Bft) 95,74 %
16.01.2019 11:32 5,9 C 6,1 C 5,6 C 83 % 1009,1 hPa 0,0 l/m 0 min 0 min 90 W/m 25,7 km/h (4 Bft) 97,87 %
16.01.2019 11:34 5,9 C 6,1 C 5,6 C 82 % 1008,9 hPa 0,0 l/m 0 min 0 min 108 W/m 22,5 km/h (4 Bft) 95,74 %
16.01.2019 11:36 5,9 C 6,1 C 5,6 C 82 % 1008,9 hPa 0,0 l/m 0 min 0 min 117 W/m 32,2 km/h (5 Bft) 100,00 %
16.01.2019 11:38 5,9 C 6,1 C 5,6 C 82 % 1009,0 hPa 0,0 l/m 0 min 0 min 118 W/m 25,7 km/h (4 Bft) 97,14 %
16.01.2019 11:40 6,0 C 6,1 C 5,6 C 82 % 1008,7 hPa 0,0 l/m 0 min 0 min 100 W/m 22,5 km/h (4 Bft) 100,00 %
16.01.2019 11:42 6,0 C 6,1 C 5,6 C 82 % 1008,7 hPa 0,0 l/m 0 min 0 min 79 W/m 32,2 km/h (5 Bft) 100,00 %
16.01.2019 11:44 6,0 C 5,6 C 5,0 C 82 % 1008,8 hPa 0,0 l/m 0 min 0 min 71 W/m 35,4 km/h (5 Bft) 100,00 %
16.01.2019 11:46 6,0 C 5,6 C 5,0 C 82 % 1008,8 hPa 0,0 l/m 0 min 0 min 68 W/m 29,0 km/h (5 Bft) 100,00 %
16.01.2019 11:48 6,0 C 5,6 C 5,0 C 82 % 1008,8 hPa 0,0 l/m 0 min 0 min 69 W/m 29,0 km/h (5 Bft) 97,87 %
16.01.2019 11:50 6,0 C 5,6 C 5,0 C 82 % 1008,5 hPa 0,0 l/m 0 min 0 min 71 W/m 29,0 km/h (5 Bft) 97,83 %
16.01.2019 11:52 6,0 C 6,1 C 5,6 C 82 % 1008,5 hPa 0,0 l/m 0 min 0 min 78 W/m 19,3 km/h (3 Bft) 100,00 %
16.01.2019 11:54 6,1 C 6,1 C 5,6 C 82 % 1008,5 hPa 0,0 l/m 0 min 0 min 77 W/m 29,0 km/h (5 Bft) 97,87 %
16.01.2019 11:56 6,1 C 6,1 C 5,6 C 82 % 1008,5 hPa 0,0 l/m 0 min 0 min 84 W/m 22,5 km/h (4 Bft) 95,74 %
16.01.2019 11:58 6,1 C 6,1 C 5,6 C 82 % 1008,5 hPa 0,0 l/m 0 min 0 min 92 W/m 29,0 km/h (5 Bft) 97,87 %
16.01.2019 12:00 6,1 C 6,1 C 5,6 C 82 % 1008,4 hPa 0,0 l/m 0 min 0 min 88 W/m 29,0 km/h (5 Bft) 97,83 %
16.01.2019 12:02 6,1 C 6,1 C 5,6 C 82 % 1008,4 hPa 0,0 l/m 0 min 0 min 86 W/m 29,0 km/h (5 Bft) 97,87 %
16.01.2019 12:04 6,1 C 6,1 C 5,6 C 82 % 1008,3 hPa 0,0 l/m 0 min 0 min 89 W/m 19,3 km/h (3 Bft) 98,21 %
16.01.2019 12:08 6,1 C 6,1 C 5,6 C 82 % 1008,3 hPa 0,0 l/m 0 min 0 min 98 W/m 25,7 km/h (4 Bft) 98,94 %
16.01.2019 12:10 6,1 C 6,1 C 5,6 C 82 % 1008,2 hPa 0,0 l/m 0 min 0 min 108 W/m 35,4 km/h (5 Bft) 100,00 %
16.01.2019 12:12 6,1 C 6,1 C 5,6 C 82 % 1008,2 hPa 0,0 l/m 0 min 0 min 108 W/m 22,5 km/h (4 Bft) 100,00 %
16.01.2019 12:14 6,2 C 6,1 C 6,1 C 82 % 1008,3 hPa 0,0 l/m 0 min 0 min 109 W/m 25,7 km/h (4 Bft) 97,83 %
16.01.2019 12:16 6,2 C 6,1 C 6,1 C 82 % 1008,2 hPa 0,0 l/m 0 min 0 min 115 W/m 32,2 km/h (5 Bft) 97,87 %
16.01.2019 12:18 6,2 C 6,1 C 6,1 C 82 % 1008,2 hPa 0,0 l/m 0 min 0 min 122 W/m 25,7 km/h (4 Bft) 97,87 %
16.01.2019 12:20 6,2 C 6,1 C 6,1 C 81 % 1008,2 hPa 0,0 l/m 0 min 0 min 125 W/m 35,4 km/h (5 Bft) 97,87 %
16.01.2019 12:22 6,2 C 6,1 C 5,6 C 81 % 1008,2 hPa 0,0 l/m 0 min 0 min 120 W/m 35,4 km/h (5 Bft) 100,00 %
16.01.2019 12:24 6,2 C 6,1 C 5,6 C 81 % 1008,1 hPa 0,0 l/m 0 min 0 min 117 W/m 29,0 km/h (5 Bft) 97,83 %
16.01.2019 12:26 6,2 C 6,1 C 5,6 C 81 % 1008,1 hPa 0,0 l/m 0 min 0 min 111 W/m 45,1 km/h (6 Bft) 95,74 %
16.01.2019 12:28 6,2 C 6,1 C 5,6 C 81 % 1008,1 hPa 0,0 l/m 0 min 0 min 101 W/m 32,2 km/h (5 Bft) 95,74 %
16.01.2019 12:30 6,2 C 6,1 C 5,6 C 81 % 1008,1 hPa 0,0 l/m 0 min 0 min 85 W/m 25,7 km/h (4 Bft) 97,87 %
16.01.2019 12:32 6,3 C 6,1 C 5,6 C 81 % 1008,0 hPa 0,0 l/m 0 min 0 min 71 W/m 22,5 km/h (4 Bft) 97,87 %
16.01.2019 12:34 6,2 C 6,1 C 5,6 C 81 % 1008,0 hPa 0,0 l/m 0 min 0 min 55 W/m 29,0 km/h (5 Bft) 97,87 %
16.01.2019 12:36 6,2 C 5,6 C 5,6 C 81 % 1008,0 hPa 0,0 l/m 0 min 0 min 52 W/m 29,0 km/h (5 Bft) 97,83 %
16.01.2019 12:38 6,2 C 5,6 C 5,6 C 81 % 1008,0 hPa 0,0 l/m 0 min 0 min 53 W/m 29,0 km/h (5 Bft) 97,87 %
16.01.2019 12:40 6,2 C 5,6 C 5,6 C 81 % 1007,9 hPa 0,0 l/m 0 min 0 min 49 W/m 19,3 km/h (3 Bft) 97,87 %
16.01.2019 12:42 6,2 C 5,6 C 5,6 C 81 % 1008,0 hPa 0,0 l/m 0 min 0 min 40 W/m 25,7 km/h (4 Bft) 97,87 %
16.01.2019 12:44 6,2 C 5,6 C 5,6 C 81 % 1007,9 hPa 0,0 l/m 0 min 0 min 39 W/m 22,5 km/h (4 Bft) 97,87 %
16.01.2019 12:46 6,1 C 5,6 C 5,0 C 81 % 1007,9 hPa 0,0 l/m 0 min 0 min 39 W/m 25,7 km/h (4 Bft) 95,74 %
16.01.2019 12:48 6,1 C 5,6 C 5,0 C 81 % 1008,0 hPa 0,0 l/m 0 min 0 min 40 W/m 25,7 km/h (4 Bft) 97,83 %
16.01.2019 12:50 6,1 C 5,6 C 5,0 C 81 % 1007,9 hPa 0,0 l/m 0 min 0 min 40 W/m 22,5 km/h (4 Bft) 95,74 %
16.01.2019 12:52 6,1 C 5,6 C 5,0 C 81 % 1007,9 hPa 0,0 l/m 0 min 0 min 40 W/m 19,3 km/h (3 Bft) 95,74 %
16.01.2019 12:54 6,1 C 5,6 C 5,0 C 81 % 1007,9 hPa 0,0 l/m 0 min 0 min 38 W/m 19,3 km/h (3 Bft) 97,87 %
16.01.2019 12:56 6,1 C 5,6 C 5,0 C 81 % 1007,8 hPa 0,0 l/m 0 min 0 min 34 W/m 25,7 km/h (4 Bft) 100,00 %
16.01.2019 12:58 6,1 C 5,6 C 5,0 C 81 % 1007,8 hPa 0,0 l/m 0 min 0 min 32 W/m 19,3 km/h (3 Bft) 95,74 %
16.01.2019 13:00 6,0 C 5,6 C 5,0 C 81 % 1007,8 hPa 0,0 l/m 0 min 0 min 33 W/m 22,5 km/h (4 Bft) 97,83 %
16.01.2019 13:02 6,0 C 5,6 C 5,0 C 81 % 1007,7 hPa 0,0 l/m 0 min 0 min 38 W/m 29,0 km/h (5 Bft) 97,87 %
16.01.2019 13:04 6,0 C 5,6 C 5,0 C 81 % 1007,6 hPa 0,0 l/m 0 min 0 min 42 W/m 16,1 km/h (3 Bft) 97,87 %
16.01.2019 13:06 6,0 C 5,6 C 5,0 C 82 % 1007,6 hPa 0,0 l/m 0 min 0 min 43 W/m 25,7 km/h (4 Bft) 97,87 %
16.01.2019 13:08 5,9 C 5,6 C 5,0 C 82 % 1007,6 hPa 0,0 l/m 0 min 0 min 40 W/m 25,7 km/h (4 Bft) 100,00 %
16.01.2019 13:10 5,9 C 5,6 C 5,0 C 82 % 1007,6 hPa 0,0 l/m 0 min 0 min 37 W/m 19,3 km/h (3 Bft) 97,87 %
16.01.2019 13:12 5,9 C 5,6 C 5,0 C 82 % 1007,6 hPa 0,0 l/m 0 min 0 min 40 W/m 22,5 km/h (4 Bft) 100,00 %
16.01.2019 13:14 5,9 C 5,6 C 5,0 C 82 % 1007,5 hPa 0,0 l/m 0 min 0 min 40 W/m 16,1 km/h (3 Bft) 100,00 %
16.01.2019 13:16 5,9 C 5,6 C 5,0 C 82 % 1007,5 hPa 0,0 l/m 0 min 0 min 38 W/m 19,3 km/h (3 Bft) 100,00 %
16.01.2019 13:18 5,9 C 5,6 C 5,0 C 82 % 1007,4 hPa 0,0 l/m 0 min 0 min 36 W/m 38,6 km/h (5 Bft) 100,00 %
16.01.2019 13:20 5,9 C 5,6 C 5,0 C 82 % 1007,3 hPa 0,0 l/m 0 min 0 min 33 W/m 29,0 km/h (5 Bft) 100,00 %
16.01.2019 13:22 5,9 C 5,6 C 5,0 C 82 % 1007,2 hPa 0,0 l/m 0 min 0 min 34 W/m 19,3 km/h (3 Bft) 100,00 %
16.01.2019 13:24 5,9 C 5,6 C 5,0 C 82 % 1007,2 hPa 0,0 l/m 0 min 0 min 32 W/m 16,1 km/h (3 Bft) 100,00 %
16.01.2019 13:26 5,9 C 5,6 C 5,0 C 82 % 1007,3 hPa 0,0 l/m 0 min 0 min 33 W/m 19,3 km/h (3 Bft) 97,87 %
16.01.2019 13:28 5,9 C 5,6 C 5,0 C 82 % 1007,2 hPa 0,0 l/m 0 min 0 min 35 W/m 35,4 km/h (5 Bft) 97,87 %
16.01.2019 13:30 5,9 C 5,6 C 5,0 C 82 % 1007,1 hPa 0,0 l/m 0 min 0 min 37 W/m 22,5 km/h (4 Bft) 97,87 %
16.01.2019 13:32 5,9 C 5,6 C 5,0 C 82 % 1007,0 hPa 0,0 l/m 0 min 0 min 43 W/m 22,5 km/h (4 Bft) 95,74 %
16.01.2019 13:34 5,9 C 5,6 C 5,0 C 82 % 1007,0 hPa 0,0 l/m 0 min 0 min 41 W/m 32,2 km/h (5 Bft) 100,00 %
16.01.2019 13:36 5,9 C 5,6 C 5,0 C 82 % 1007,0 hPa 0,0 l/m 0 min 0 min 41 W/m 19,3 km/h (3 Bft) 97,87 %
16.01.2019 13:38 5,9 C 5,6 C 5,0 C 81 % 1007,0 hPa 0,0 l/m 0 min 0 min 41 W/m 22,5 km/h (4 Bft) 97,87 %
16.01.2019 13:40 5,9 C 5,6 C 5,0 C 82 % 1006,8 hPa 0,0 l/m 0 min 0 min 42 W/m 19,3 km/h (3 Bft) 97,87 %
16.01.2019 13:42 5,9 C 5,6 C 5,0 C 82 % 1006,8 hPa 0,0 l/m 0 min 0 min 39 W/m 22,5 km/h (4 Bft) 93,62 %
16.01.2019 13:44 5,8 C 5,6 C 5,0 C 82 % 1006,7 hPa 0,0 l/m 0 min 0 min 40 W/m 32,2 km/h (5 Bft) 95,74 %
16.01.2019 13:46 5,9 C 5,6 C 5,0 C 81 % 1006,7 hPa 0,0 l/m 0 min 0 min 45 W/m 29,0 km/h (5 Bft) 95,65 %
16.01.2019 13:48 5,8 C 5,6 C 5,0 C 81 % 1006,7 hPa 0,0 l/m 0 min 0 min 47 W/m 25,7 km/h (4 Bft) 91,49 %
16.01.2019 13:50 5,8 C 5,6 C 5,0 C 81 % 1006,6 hPa 0,0 l/m 0 min 0 min 48 W/m 35,4 km/h (5 Bft) 95,74 %
16.01.2019 13:52 5,8 C 5,6 C 5,0 C 81 % 1006,6 hPa 0,0 l/m 0 min 0 min 51 W/m 19,3 km/h (3 Bft) 97,87 %
16.01.2019 13:54 5,8 C 5,6 C 5,0 C 82 % 1006,6 hPa 0,0 l/m 0 min 0 min 49 W/m 19,3 km/h (3 Bft) 95,74 %
16.01.2019 13:56 5,9 C 5,6 C 5,0 C 82 % 1006,6 hPa 0,0 l/m 0 min 0 min 46 W/m 22,5 km/h (4 Bft) 95,74 %
16.01.2019 13:58 5,8 C 5,6 C 5,0 C 82 % 1006,6 hPa 0,0 l/m 0 min 0 min 42 W/m 19,3 km/h (3 Bft) 95,65 %
16.01.2019 14:00 5,9 C 5,6 C 5,0 C 82 % 1006,5 hPa 0,0 l/m 0 min 0 min 44 W/m 29,0 km/h (5 Bft) 95,74 %
16.01.2019 14:02 5,9 C 5,6 C 5,0 C 82 % 1006,4 hPa 0,0 l/m 0 min 0 min 47 W/m 22,5 km/h (4 Bft) 95,74 %
16.01.2019 14:04 5,9 C 5,6 C 5,0 C 82 % 1006,4 hPa 0,0 l/m 0 min 0 min 51 W/m 22,5 km/h (4 Bft) 95,74 %
16.01.2019 14:06 5,9 C 5,6 C 5,0 C 82 % 1006,4 hPa 0,0 l/m 0 min 0 min 56 W/m 19,3 km/h (3 Bft) 93,62 %
16.01.2019 14:08 5,9 C 5,6 C 5,0 C 82 % 1006,4 hPa 0,0 l/m 0 min 0 min 53 W/m 29,0 km/h (5 Bft) 95,74 %
16.01.2019 14:10 5,9 C 5,6 C 5,0 C 82 % 1006,4 hPa 0,0 l/m 0 min 0 min 51 W/m 22,5 km/h (4 Bft) 95,65 %
16.01.2019 14:12 5,9 C 5,6 C 5,0 C 82 % 1006,3 hPa 0,0 l/m 0 min 0 min 45 W/m 16,1 km/h (3 Bft) 97,87 %
16.01.2019 14:14 5,9 C 5,6 C 5,0 C 82 % 1006,2 hPa 0,0 l/m 0 min 0 min 48 W/m 22,5 km/h (4 Bft) 97,87 %
16.01.2019 14:16 5,9 C 5,6 C 5,0 C 82 % 1006,1 hPa 0,0 l/m 0 min 0 min 55 W/m 12,9 km/h (3 Bft) 97,87 %
16.01.2019 14:18 5,9 C 5,6 C 5,0 C 82 % 1006,1 hPa 0,0 l/m 0 min 0 min 59 W/m 16,1 km/h (3 Bft) 95,74 %
16.01.2019 14:20 5,9 C 5,6 C 5,0 C 82 % 1006,1 hPa 0,0 l/m 0 min 0 min 62 W/m 16,1 km/h (3 Bft) 97,14 %
16.01.2019 14:22 5,9 C 5,6 C 5,6 C 82 % 1006,1 hPa 0,0 l/m 0 min 0 min 61 W/m 19,3 km/h (3 Bft) 98,36 %
16.01.2019 14:24 5,9 C 5,6 C 5,0 C 82 % 1006,1 hPa 0,0 l/m 0 min 0 min 54 W/m 16,1 km/h (3 Bft) 97,87 %
16.01.2019 14:26 5,9 C 5,6 C 5,0 C 82 % 1006,1 hPa 0,0 l/m 0 min 0 min 48 W/m 22,5 km/h (4 Bft) 97,87 %
16.01.2019 14:28 6,0 C 5,6 C 5,0 C 82 % 1006,1 hPa 0,0 l/m 0 min 0 min 43 W/m 16,1 km/h (3 Bft) 93,62 %
16.01.2019 14:30 6,0 C 5,6 C 5,0 C 82 % 1006,0 hPa 0,0 l/m 0 min 0 min 35 W/m 22,5 km/h (4 Bft) 95,65 %
16.01.2019 14:32 6,0 C 5,6 C 5,0 C 82 % 1005,9 hPa 0,0 l/m 0 min 0 min 30 W/m 22,5 km/h (4 Bft) 97,87 %
16.01.2019 14:34 6,0 C 5,6 C 5,0 C 82 % 1005,9 hPa 0,0 l/m 0 min 0 min 27 W/m 12,9 km/h (3 Bft) 97,87 %
16.01.2019 14:36 6,0 C 5,6 C 5,0 C 82 % 1005,9 hPa 0,0 l/m 0 min 0 min 25 W/m 12,9 km/h (3 Bft) 97,87 %
16.01.2019 14:38 6,0 C 5,6 C 5,0 C 82 % 1005,8 hPa 0,0 l/m 0 min 0 min 30 W/m 16,1 km/h (3 Bft) 100,00 %
16.01.2019 14:40 6,0 C 5,6 C 5,0 C 82 % 1005,8 hPa 0,0 l/m 0 min 0 min 35 W/m 12,9 km/h (3 Bft) 100,00 %
16.01.2019 14:42 6,0 C 5,6 C 5,0 C 82 % 1005,8 hPa 0,0 l/m 0 min 0 min 33 W/m 16,1 km/h (3 Bft) 97,83 %
16.01.2019 14:44 5,9 C 5,6 C 5,0 C 82 % 1005,7 hPa 0,0 l/m 0 min 0 min 33 W/m 25,7 km/h (4 Bft) 100,00 %
16.01.2019 14:46 5,9 C 5,6 C 5,0 C 81 % 1005,7 hPa 0,0 l/m 0 min 0 min 33 W/m 12,9 km/h (3 Bft) 95,74 %
16.01.2019 14:48 5,9 C 5,6 C 5,0 C 81 % 1005,7 hPa 0,0 l/m 0 min 0 min 33 W/m 16,1 km/h (3 Bft) 100,00 %
16.01.2019 14:50 5,9 C 5,6 C 5,0 C 81 % 1005,7 hPa 0,0 l/m 0 min 0 min 34 W/m 22,5 km/h (4 Bft) 100,00 %
16.01.2019 14:52 5,9 C 5,6 C 5,0 C 81 % 1005,7 hPa 0,0 l/m 0 min 0 min 35 W/m 29,0 km/h (5 Bft) 95,65 %
16.01.2019 14:54 5,9 C 5,6 C 5,0 C 81 % 1005,6 hPa 0,0 l/m 0 min 0 min 34 W/m 25,7 km/h (4 Bft) 100,00 %
16.01.2019 14:56 5,9 C 5,6 C 5,0 C 81 % 1005,4 hPa 0,0 l/m 0 min 0 min 35 W/m 16,1 km/h (3 Bft) 100,00 %
16.01.2019 14:58 5,9 C 5,6 C 5,0 C 81 % 1005,3 hPa 0,0 l/m 0 min 0 min 34 W/m 12,9 km/h (3 Bft) 97,87 %
16.01.2019 15:00 5,9 C 5,6 C 5,0 C 81 % 1005,4 hPa 0,0 l/m 0 min 0 min 35 W/m 16,1 km/h (3 Bft) 97,87 %
16.01.2019 15:02 5,9 C 5,6 C 5,0 C 81 % 1005,3 hPa 0,0 l/m 0 min 0 min 38 W/m 19,3 km/h (3 Bft) 97,87 %
16.01.2019 15:04 5,9 C 5,6 C 5,0 C 81 % 1005,3 hPa 0,0 l/m 0 min 0 min 43 W/m 16,1 km/h (3 Bft) 100,00 %
16.01.2019 15:06 5,9 C 5,6 C 5,0 C 81 % 1005,3 hPa 0,0 l/m 0 min 0 min 43 W/m 16,1 km/h (3 Bft) 100,00 %
16.01.2019 15:08 6,0 C 5,6 C 5,0 C 81 % 1005,3 hPa 0,0 l/m 0 min 0 min 39 W/m 25,7 km/h (4 Bft) 97,87 %
16.01.2019 15:10 5,9 C 5,6 C 5,0 C 81 % 1005,2 hPa 0,0 l/m 0 min 0 min 40 W/m 22,5 km/h (4 Bft) 95,74 %
16.01.2019 15:12 5,9 C 5,6 C 5,0 C 81 % 1005,2 hPa 0,0 l/m 0 min 0 min 42 W/m 16,1 km/h (3 Bft) 97,87 %
16.01.2019 15:14 6,0 C 5,6 C 5,0 C 81 % 1005,2 hPa 0,0 l/m 0 min 0 min 45 W/m 19,3 km/h (3 Bft) 97,87 %
16.01.2019 15:16 6,0 C 5,6 C 5,0 C 81 % 1005,2 hPa 0,0 l/m 0 min 0 min 47 W/m 16,1 km/h (3 Bft) 97,83 %
16.01.2019 15:18 6,0 C 5,6 C 5,0 C 81 % 1005,2 hPa 0,0 l/m 0 min 0 min 45 W/m 9,7 km/h (2 Bft) 97,87 %
16.01.2019 15:20 6,0 C 5,6 C 5,0 C 81 % 1005,1 hPa 0,0 l/m 0 min 0 min 38 W/m 12,9 km/h (3 Bft) 95,74 %
16.01.2019 15:22 6,0 C 5,6 C 5,0 C 81 % 1005,1 hPa 0,0 l/m 0 min 0 min 35 W/m 22,5 km/h (4 Bft) 97,87 %
16.01.2019 15:24 6,0 C 5,6 C 5,0 C 81 % 1005,1 hPa 0,0 l/m 0 min 0 min 32 W/m 19,3 km/h (3 Bft) 97,87 %
16.01.2019 15:26 6,0 C 5,6 C 5,0 C 81 % 1005,1 hPa 0,0 l/m 0 min 0 min 32 W/m 16,1 km/h (3 Bft) 97,87 %
16.01.2019 15:28 6,0 C 5,6 C 5,0 C 81 % 1005,0 hPa 0,0 l/m 0 min 0 min 30 W/m 19,3 km/h (3 Bft) 97,83 %
16.01.2019 15:30 6,0 C 5,6 C 5,0 C 81 % 1004,9 hPa 0,0 l/m 0 min 0 min 32 W/m 19,3 km/h (3 Bft) 97,87 %
16.01.2019 15:32 6,0 C 5,6 C 5,0 C 81 % 1004,9 hPa 0,0 l/m 0 min 0 min 32 W/m 16,1 km/h (3 Bft) 95,74 %
16.01.2019 15:34 6,0 C 5,6 C 5,0 C 81 % 1005,0 hPa 0,0 l/m 0 min 0 min 30 W/m 22,5 km/h (4 Bft) 95,74 %
16.01.2019 15:36 6,0 C 5,6 C 5,0 C 81 % 1004,9 hPa 0,0 l/m 0 min 0 min 28 W/m 19,3 km/h (3 Bft) 95,74 %
16.01.2019 15:38 6,0 C 5,6 C 5,0 C 81 % 1004,9 hPa 0,0 l/m 0 min 0 min 28 W/m 25,7 km/h (4 Bft) 97,87 %
16.01.2019 15:40 6,0 C 5,6 C 5,0 C 81 % 1004,8 hPa 0,0 l/m 0 min 0 min 29 W/m 19,3 km/h (3 Bft) 97,83 %
16.01.2019 15:42 6,0 C 5,6 C 5,0 C 81 % 1004,7 hPa 0,0 l/m 0 min 0 min 27 W/m 19,3 km/h (3 Bft) 95,74 %
16.01.2019 15:44 6,0 C 5,6 C 5,0 C 81 % 1004,7 hPa 0,0 l/m 0 min 0 min 25 W/m 32,2 km/h (5 Bft) 97,87 %
16.01.2019 15:46 6,0 C 5,6 C 5,0 C 81 % 1004,8 hPa 0,0 l/m 0 min 0 min 23 W/m 16,1 km/h (3 Bft) 95,74 %
16.01.2019 15:48 6,0 C 5,6 C 5,0 C 81 % 1004,7 hPa 0,0 l/m 0 min 0 min 23 W/m 19,3 km/h (3 Bft) 97,87 %
16.01.2019 15:50 6,0 C 5,6 C 5,0 C 81 % 1004,7 hPa 0,0 l/m 0 min 0 min 23 W/m 22,5 km/h (4 Bft) 97,87 %
16.01.2019 15:52 6,0 C 5,6 C 5,0 C 81 % 1004,7 hPa 0,0 l/m 0 min 0 min 21 W/m 16,1 km/h (3 Bft) 93,48 %
16.01.2019 15:54 6,0 C 5,6 C 5,0 C 81 % 1004,7 hPa 0,0 l/m 0 min 0 min 23 W/m 16,1 km/h (3 Bft) 95,74 %
16.01.2019 15:56 6,0 C 5,6 C 5,0 C 81 % 1004,7 hPa 0,0 l/m 0 min 0 min 23 W/m 19,3 km/h (3 Bft) 97,87 %
16.01.2019 15:58 6,0 C 5,6 C 5,0 C 81 % 1004,6 hPa 0,0 l/m 0 min 0 min 24 W/m 19,3 km/h (3 Bft) 100,00 %
16.01.2019 16:00 6,0 C 5,6 C 5,0 C 81 % 1004,6 hPa 0,0 l/m 0 min 0 min 22 W/m 25,7 km/h (4 Bft) 95,74 %
16.01.2019 16:02 6,0 C 5,6 C 5,0 C 81 % 1004,6 hPa 0,0 l/m 0 min 0 min 21 W/m 12,9 km/h (3 Bft) 97,83 %
16.01.2019 16:04 6,0 C 5,6 C 5,0 C 81 % 1004,5 hPa 0,0 l/m 0 min 0 min 20 W/m 12,9 km/h (3 Bft) 97,87 %
16.01.2019 16:06 6,0 C 5,6 C 5,0 C 81 % 1004,6 hPa 0,0 l/m 0 min 0 min 19 W/m 12,9 km/h (3 Bft) 93,62 %
16.01.2019 16:08 6,0 C 5,6 C 5,0 C 81 % 1004,6 hPa 0,0 l/m 0 min 0 min 18 W/m 9,7 km/h (2 Bft) 97,87 %
16.01.2019 16:10 6,0 C 5,6 C 5,0 C 81 % 1004,6 hPa 0,0 l/m 0 min 0 min 17 W/m 16,1 km/h (3 Bft) 95,74 %
16.01.2019 16:12 6,0 C 5,6 C 5,0 C 81 % 1004,6 hPa 0,0 l/m 0 min 0 min 16 W/m 16,1 km/h (3 Bft) 93,62 %
16.01.2019 16:14 6,0 C 5,6 C 5,0 C 81 % 1004,6 hPa 0,0 l/m 0 min 0 min 18 W/m 16,1 km/h (3 Bft) 97,83 %
16.01.2019 16:16 6,0 C 5,6 C 5,0 C 81 % 1004,5 hPa 0,0 l/m 0 min 0 min 18 W/m 12,9 km/h (3 Bft) 97,87 %
16.01.2019 16:18 6,0 C 5,6 C 5,0 C 81 % 1004,5 hPa 0,0 l/m 0 min 0 min 18 W/m 16,1 km/h (3 Bft) 97,87 %
16.01.2019 16:20 6,0 C 5,6 C 5,0 C 82 % 1004,5 hPa 0,0 l/m 0 min 0 min 16 W/m 9,7 km/h (2 Bft) 97,87 %
16.01.2019 16:22 6,0 C 5,6 C 5,0 C 82 % 1004,5 hPa 0,0 l/m 0 min 0 min 15 W/m 25,7 km/h (4 Bft) 97,87 %
16.01.2019 16:24 6,0 C 5,6 C 5,0 C 82 % 1004,4 hPa 0,0 l/m 0 min 0 min 15 W/m 16,1 km/h (3 Bft) 95,74 %
16.01.2019 16:26 5,9 C 5,6 C 5,0 C 82 % 1004,3 hPa 0,0 l/m 0 min 0 min 16 W/m 16,1 km/h (3 Bft) 97,83 %
16.01.2019 16:28 5,9 C 5,6 C 5,0 C 82 % 1004,3 hPa 0,0 l/m 0 min 0 min 17 W/m 9,7 km/h (2 Bft) 97,87 %
16.01.2019 16:30 5,9 C 5,6 C 5,0 C 82 % 1004,4 hPa 0,0 l/m 0 min 0 min 16 W/m 16,1 km/h (3 Bft) 97,87 %
16.01.2019 16:32 5,9 C 5,6 C 5,0 C 82 % 1004,4 hPa 0,0 l/m 0 min 0 min 15 W/m 9,7 km/h (2 Bft) 97,62 %
16.01.2019 16:34 5,9 C 5,6 C 5,0 C 82 % 1004,3 hPa 0,0 l/m 0 min 0 min 14 W/m 12,9 km/h (3 Bft) 97,87 %
16.01.2019 16:36 5,9 C 5,6 C 5,0 C 82 % 1004,3 hPa 0,0 l/m 0 min 0 min 14 W/m 12,9 km/h (3 Bft) 97,87 %
16.01.2019 16:38 5,9 C 5,6 C 5,0 C 82 % 1004,2 hPa 0,0 l/m 0 min 0 min 12 W/m 16,1 km/h (3 Bft) 97,92 %
16.01.2019 16:40 5,9 C 5,6 C 5,0 C 82 % 1004,1 hPa 0,0 l/m 0 min 0 min 12 W/m 9,7 km/h (2 Bft) 97,87 %
16.01.2019 16:42 5,9 C 5,0 C 4,4 C 82 % 1004,0 hPa 0,0 l/m 0 min 0 min 11 W/m 16,1 km/h (3 Bft) 95,65 %
16.01.2019 16:44 5,9 C 5,0 C 4,4 C 82 % 1004,0 hPa 0,0 l/m 0 min 0 min 10 W/m 16,1 km/h (3 Bft) 97,87 %
16.01.2019 16:46 5,9 C 5,0 C 4,4 C 81 % 1003,8 hPa 0,0 l/m 0 min 0 min 8 W/m 25,7 km/h (4 Bft) 97,87 %
16.01.2019 16:48 5,8 C 5,0 C 4,4 C 81 % 1003,9 hPa 0,0 l/m 0 min 0 min 6 W/m 16,1 km/h (3 Bft) 97,87 %
16.01.2019 16:50 5,8 C 5,0 C 4,4 C 81 % 1003,8 hPa 0,0 l/m 0 min 0 min 5 W/m 19,3 km/h (3 Bft) 97,87 %
16.01.2019 16:52 5,8 C 5,0 C 4,4 C 81 % 1003,7 hPa 0,0 l/m 0 min 0 min 3 W/m 19,3 km/h (3 Bft) 97,87 %
16.01.2019 16:54 5,8 C 5,0 C 4,4 C 82 % 1003,7 hPa 0,0 l/m 0 min 0 min 0 W/m 12,9 km/h (3 Bft) 100,00 %
16.01.2019 16:56 5,8 C 5,0 C 4,4 C 82 % 1003,7 hPa 0,0 l/m 0 min 0 min 0 W/m 12,9 km/h (3 Bft) 100,00 %
16.01.2019 16:58 5,7 C 5,0 C 4,4 C 82 % 1003,7 hPa 0,0 l/m 0 min 0 min 0 W/m 12,9 km/h (3 Bft) 100,00 %
16.01.2019 17:00 5,7 C 5,0 C 4,4 C 82 % 1003,7 hPa 0,0 l/m 0 min 0 min 0 W/m 12,9 km/h (3 Bft) 97,87 %
16.01.2019 17:02 5,7 C 5,0 C 4,4 C 82 % 1003,7 hPa 0,0 l/m 0 min 0 min 0 W/m 12,9 km/h (3 Bft) 100,00 %
16.01.2019 17:04 5,7 C 5,0 C 4,4 C 82 % 1003,8 hPa 0,0 l/m 0 min 0 min 0 W/m 12,9 km/h (3 Bft) 97,83 %
16.01.2019 17:06 5,6 C 5,0 C 4,4 C 82 % 1003,7 hPa 0,0 l/m 0 min 0 min 0 W/m 16,1 km/h (3 Bft) 97,87 %
16.01.2019 17:08 5,6 C 5,0 C 4,4 C 82 % 1003,7 hPa 0,0 l/m 0 min 0 min 0 W/m 9,7 km/h (2 Bft) 100,00 %
16.01.2019 17:10 5,6 C 5,0 C 3,9 C 82 % 1003,5 hPa 0,0 l/m 0 min 0 min 0 W/m 9,7 km/h (2 Bft) 97,87 %
16.01.2019 17:12 5,6 C 5,0 C 3,9 C 82 % 1003,5 hPa 0,0 l/m 0 min 0 min 0 W/m 9,7 km/h (2 Bft) 95,74 %
16.01.2019 17:14 5,6 C 5,0 C 3,9 C 83 % 1003,4 hPa 0,0 l/m 0 min 0 min 0 W/m 9,7 km/h (2 Bft) 97,87 %
16.01.2019 17:16 5,5 C 4,4 C 3,9 C 83 % 1003,5 hPa 0,0 l/m 0 min 0 min 0 W/m 9,7 km/h (2 Bft) 97,83 %
16.01.2019 17:18 5,5 C 4,4 C 3,9 C 83 % 1003,5 hPa 0,0 l/m 0 min 0 min 0 W/m 12,9 km/h (3 Bft) 95,74 %
16.01.2019 17:20 5,4 C 4,4 C 3,9 C 83 % 1003,5 hPa 0,0 l/m 0 min 0 min 0 W/m 9,7 km/h (2 Bft) 97,87 %
16.01.2019 17:22 5,4 C 4,4 C 3,9 C 83 % 1003,5 hPa 0,0 l/m 0 min 0 min 0 W/m 9,7 km/h (2 Bft) 95,74 %
16.01.2019 17:24 5,4 C 4,4 C 3,9 C 83 % 1003,4 hPa 0,0 l/m 0 min 0 min 0 W/m 12,9 km/h (3 Bft) 97,87 %
16.01.2019 17:26 5,4 C 4,4 C 3,9 C 83 % 1003,3 hPa 0,0 l/m 0 min 0 min 0 W/m 9,7 km/h (2 Bft) 95,74 %
16.01.2019 17:28 5,4 C 4,4 C 3,9 C 83 % 1003,3 hPa 0,0 l/m 0 min 0 min 0 W/m 9,7 km/h (2 Bft) 97,83 %
16.01.2019 17:30 5,3 C 4,4 C 3,9 C 83 % 1003,3 hPa 0,0 l/m 0 min 0 min 0 W/m 9,7 km/h (2 Bft) 97,87 %
16.01.2019 17:32 5,3 C 4,4 C 3,9 C 83 % 1003,3 hPa 0,0 l/m 0 min 0 min 0 W/m 9,7 km/h (2 Bft) 97,87 %
16.01.2019 17:34 5,3 C 4,4 C 3,9 C 83 % 1003,3 hPa 0,0 l/m 0 min 0 min 0 W/m 9,7 km/h (2 Bft) 97,87 %
16.01.2019 17:36 5,3 C 4,4 C 3,9 C 84 % 1003,3 hPa 0,0 l/m 0 min 0 min 0 W/m 12,9 km/h (3 Bft) 95,83 %
16.01.2019 17:38 5,2 C 4,4 C 3,9 C 84 % 1003,3 hPa 0,0 l/m 0 min 0 min 0 W/m 12,9 km/h (3 Bft) 95,74 %
16.01.2019 17:40 5,2 C 4,4 C 3,9 C 84 % 1003,3 hPa 0,0 l/m 0 min 0 min 0 W/m 12,9 km/h (3 Bft) 97,83 %
16.01.2019 17:42 5,2 C 4,4 C 3,3 C 84 % 1003,2 hPa 0,0 l/m 0 min 0 min 0 W/m 6,4 km/h (2 Bft) 97,87 %
16.01.2019 17:44 5,2 C 4,4 C 3,3 C 84 % 1003,3 hPa 0,0 l/m 0 min 0 min 0 W/m 9,7 km/h (2 Bft) 95,74 %
16.01.2019 17:46 5,1 C 3,9 C 3,3 C 84 % 1003,3 hPa 0,0 l/m 0 min 0 min 0 W/m 6,4 km/h (2 Bft) 95,74 %
16.01.2019 17:48 5,1 C 3,9 C 3,3 C 85 % 1003,3 hPa 0,0 l/m 0 min 0 min 0 W/m 9,7 km/h (2 Bft) 95,74 %
16.01.2019 17:50 5,1 C 3,9 C 3,3 C 85 % 1003,2 hPa 0,0 l/m 0 min 0 min 0 W/m 9,7 km/h (2 Bft) 95,74 %
16.01.2019 17:52 5,1 C 3,9 C 3,3 C 85 % 1003,1 hPa 0,0 l/m 0 min 0 min 0 W/m 12,9 km/h (3 Bft) 97,83 %
16.01.2019 17:54 5,1 C 3,9 C 3,3 C 85 % 1003,2 hPa 0,0 l/m 0 min 0 min 0 W/m 9,7 km/h (2 Bft) 97,87 %
16.01.2019 17:56 5,0 C 3,9 C 3,3 C 85 % 1003,2 hPa 0,0 l/m 0 min 0 min 0 W/m 6,4 km/h (2 Bft) 95,74 %
16.01.2019 17:58 5,0 C 3,9 C 3,3 C 85 % 1003,2 hPa 0,0 l/m 0 min 0 min 0 W/m 6,4 km/h (2 Bft) 95,74 %
16.01.2019 18:01 4,9 C 3,9 C 3,3 C 85 % 1003,1 hPa 0,0 l/m 0 min 0 min 0 W/m 9,7 km/h (2 Bft) 95,71 %
16.01.2019 18:02 4,9 C 3,9 C 3,3 C 85 % 1003,1 hPa 0,0 l/m 0 min 0 min 0 W/m 9,7 km/h (2 Bft) 91,67 %
16.01.2019 18:04 4,9 C 3,9 C 3,3 C 85 % 1003,1 hPa 0,0 l/m 0 min 0 min 0 W/m 9,7 km/h (2 Bft) 93,48 %
16.01.2019 18:06 4,9 C 3,9 C 3,3 C 86 % 1003,1 hPa 0,0 l/m 0 min 0 min 0 W/m 9,7 km/h (2 Bft) 95,74 %
16.01.2019 18:10 4,8 C 3,9 C 3,3 C 86 % 1003,1 hPa 0,0 l/m 0 min 0 min 0 W/m 6,4 km/h (2 Bft) 94,44 %
16.01.2019 18:12 4,8 C 3,9 C 3,3 C 86 % 1003,1 hPa 0,0 l/m 0 min 0 min 0 W/m 6,4 km/h (2 Bft) 93,48 %
16.01.2019 18:14 4,8 C 3,9 C 3,3 C 86 % 1003,1 hPa 0,0 l/m 0 min 0 min 0 W/m 6,4 km/h (2 Bft) 97,87 %
16.01.2019 18:16 4,8 C 3,9 C 3,3 C 86 % 1003,0 hPa 0,0 l/m 0 min 0 min 0 W/m 6,4 km/h (2 Bft) 95,74 %
16.01.2019 18:18 4,8 C 3,9 C 3,3 C 86 % 1003,0 hPa 0,0 l/m 0 min 0 min 0 W/m 6,4 km/h (2 Bft) 95,74 %
16.01.2019 18:20 4,7 C 3,9 C 3,3 C 86 % 1003,0 hPa 0,0 l/m 0 min 0 min 0 W/m 6,4 km/h (2 Bft) 97,87 %
16.01.2019 18:22 4,7 C 3,9 C 3,3 C 86 % 1002,9 hPa 0,0 l/m 0 min 0 min 0 W/m 9,7 km/h (2 Bft) 97,87 %
16.01.2019 18:24 4,7 C 3,9 C 3,3 C 86 % 1002,9 hPa 0,0 l/m 0 min 0 min 0 W/m 12,9 km/h (3 Bft) 97,83 %
16.01.2019 18:26 4,7 C 3,9 C 3,3 C 86 % 1002,9 hPa 0,0 l/m 0 min 0 min 0 W/m 6,4 km/h (2 Bft) 95,74 %
16.01.2019 18:28 4,7 C 3,9 C 3,3 C 86 % 1002,9 hPa 0,0 l/m 0 min 0 min 0 W/m 6,4 km/h (2 Bft) 97,87 %
16.01.2019 18:30 4,7 C 3,9 C 3,3 C 86 % 1002,9 hPa 0,0 l/m 0 min 0 min 0 W/m 6,4 km/h (2 Bft) 93,75 %
16.01.2019 18:32 4,6 C 3,9 C 3,3 C 86 % 1002,9 hPa 0,0 l/m 0 min 0 min 0 W/m 6,4 km/h (2 Bft) 97,87 %
16.01.2019 18:34 4,6 C 3,9 C 3,3 C 86 % 1002,9 hPa 0,0 l/m 0 min 0 min 0 W/m 6,4 km/h (2 Bft) 97,87 %
16.01.2019 18:36 4,6 C 3,9 C 3,3 C 86 % 1002,8 hPa 0,0 l/m 0 min 0 min 0 W/m 6,4 km/h (2 Bft) 97,83 %
16.01.2019 18:38 4,6 C 3,9 C 3,3 C 86 % 1002,8 hPa 0,0 l/m 0 min 0 min 0 W/m 6,4 km/h (2 Bft) 100,00 %
16.01.2019 18:40 4,6 C 3,9 C 3,3 C 86 % 1002,8 hPa 0,0 l/m 0 min 0 min 0 W/m 6,4 km/h (2 Bft) 97,87 %
16.01.2019 18:42 4,6 C 3,9 C 3,3 C 87 % 1002,8 hPa 0,0 l/m 0 min 0 min 0 W/m 6,4 km/h (2 Bft) 97,87 %
16.01.2019 18:44 4,5 C 3,9 C 3,3 C 87 % 1002,8 hPa 0,0 l/m 0 min 0 min 0 W/m 6,4 km/h (2 Bft) 97,87 %
16.01.2019 18:46 4,5 C 3,9 C 3,3 C 87 % 1002,8 hPa 0,0 l/m 0 min 0 min 0 W/m 9,7 km/h (2 Bft) 100,00 %
16.01.2019 18:48 4,5 C 3,9 C 3,3 C 87 % 1002,8 hPa 0,0 l/m 0 min 0 min 0 W/m 6,4 km/h (2 Bft) 100,00 %
16.01.2019 18:50 4,5 C 3,9 C 3,3 C 87 % 1002,7 hPa 0,0 l/m 0 min 0 min 0 W/m 6,4 km/h (2 Bft) 100,00 %
16.01.2019 18:52 4,4 C 3,9 C 3,3 C 87 % 1002,7 hPa 0,0 l/m 0 min 0 min 0 W/m 9,7 km/h (2 Bft) 97,87 %
16.01.2019 18:54 4,4 C 3,9 C 3,3 C 87 % 1002,7 hPa 0,0 l/m 0 min 0 min 0 W/m 6,4 km/h (2 Bft) 100,00 %
16.01.2019 18:56 4,4 C 3,9 C 3,3 C 87 % 1002,7 hPa 0,0 l/m 0 min 0 min 0 W/m 12,9 km/h (3 Bft) 97,87 %
16.01.2019 18:58 4,4 C 3,9 C 3,3 C 87 % 1002,6 hPa 0,0 l/m 0 min 0 min 0 W/m 9,7 km/h (2 Bft) 97,83 %
16.01.2019 19:00 4,4 C 3,9 C 3,3 C 87 % 1002,7 hPa 0,0 l/m 0 min 0 min 0 W/m 9,7 km/h (2 Bft) 97,87 %
16.01.2019 19:02 4,4 C 4,4 C 3,3 C 87 % 1002,7 hPa 0,0 l/m 0 min 0 min 0 W/m 9,7 km/h (2 Bft) 95,74 %
16.01.2019 19:04 4,4 C 4,4 C 3,9 C 87 % 1002,7 hPa 0,0 l/m 0 min 0 min 0 W/m 16,1 km/h (3 Bft) 97,87 %
16.01.2019 19:06 4,4 C 4,4 C 3,9 C 87 % 1002,5 hPa 0,0 l/m 0 min 0 min 0 W/m 19,3 km/h (3 Bft) 97,87 %
16.01.2019 19:08 4,5 C 4,4 C 3,9 C 87 % 1002,6 hPa 0,0 l/m 0 min 0 min 0 W/m 9,7 km/h (2 Bft) 95,65 %
16.01.2019 19:10 4,5 C 4,4 C 3,9 C 87 % 1002,6 hPa 0,0 l/m 0 min 0 min 0 W/m 12,9 km/h (3 Bft) 97,87 %
16.01.2019 19:12 4,5 C 4,4 C 3,9 C 87 % 1002,5 hPa 0,0 l/m 0 min 0 min 0 W/m 12,9 km/h (3 Bft) 97,87 %
16.01.2019 19:14 4,6 C 4,4 C 3,9 C 87 % 1002,4 hPa 0,0 l/m 0 min 0 min 0 W/m 19,3 km/h (3 Bft) 97,87 %
16.01.2019 19:16 4,6 C 4,4 C 3,9 C 87 % 1002,4 hPa 0,0 l/m 0 min 0 min 0 W/m 12,9 km/h (3 Bft) 97,87 %
16.01.2019 19:18 4,6 C 4,4 C 3,9 C 87 % 1002,4 hPa 0,0 l/m 0 min 0 min 0 W/m 25,7 km/h (4 Bft) 93,62 %
16.01.2019 19:20 4,7 C 4,4 C 3,9 C 87 % 1002,5 hPa 0,0 l/m 0 min 0 min 0 W/m 22,5 km/h (4 Bft) 97,83 %
16.01.2019 19:22 4,7 C 4,4 C 3,9 C 87 % 1002,5 hPa 0,0 l/m 0 min 0 min 0 W/m 9,7 km/h (2 Bft) 97,87 %
16.01.2019 19:24 4,7 C 4,4 C 3,9 C 87 % 1002,5 hPa 0,0 l/m 0 min 0 min 0 W/m 19,3 km/h (3 Bft) 97,87 %
16.01.2019 19:26 4,8 C 5,0 C 3,9 C 87 % 1002,5 hPa 0,0 l/m 0 min 0 min 0 W/m 19,3 km/h (3 Bft) 97,87 %
16.01.2019 19:28 4,8 C 5,0 C 3,9 C 87 % 1002,4 hPa 0,0 l/m 0 min 0 min 0 W/m 22,5 km/h (4 Bft) 97,87 %
16.01.2019 19:30 4,8 C 5,0 C 4,4 C 87 % 1002,4 hPa 0,0 l/m 0 min 0 min 0 W/m 22,5 km/h (4 Bft) 100,00 %
16.01.2019 19:35 4,9 C 5,0 C 4,4 C 86 % 1002,4 hPa 0,0 l/m 0 min 0 min 0 W/m 32,2 km/h (5 Bft) 100,00 %
16.01.2019 19:40 5,1 C 5,0 C 4,4 C 86 % 1002,4 hPa 0,0 l/m 0 min 0 min 0 W/m 22,5 km/h (4 Bft) 100,00 %
16.01.2019 19:44 5,2 C 5,0 C 4,4 C 85 % 1002,3 hPa 0,0 l/m 0 min 0 min 0 W/m 22,5 km/h (4 Bft) 100,00 %
16.01.2019 19:46 5,2 C 5,0 C 4,4 C 85 % 1002,4 hPa 0,0 l/m 0 min 0 min 0 W/m 25,7 km/h (4 Bft) 100,00 %
16.01.2019 19:48 5,2 C 5,0 C 4,4 C 85 % 1002,2 hPa 0,0 l/m 0 min 0 min 0 W/m 16,1 km/h (3 Bft) 100,00 %
16.01.2019 19:50 5,2 C 5,0 C 4,4 C 85 % 1002,3 hPa 0,0 l/m 0 min 0 min 0 W/m 16,1 km/h (3 Bft) 100,00 %
16.01.2019 19:52 5,3 C 5,0 C 4,4 C 85 % 1002,4 hPa 0,0 l/m 0 min 0 min 0 W/m 16,1 km/h (3 Bft) 97,87 %
16.01.2019 19:54 5,3 C 5,0 C 4,4 C 84 % 1002,3 hPa 0,0 l/m 0 min 0 min 0 W/m 19,3 km/h (3 Bft) 100,00 %
16.01.2019 19:56 5,3 C 5,0 C 4,4 C 84 % 1002,2 hPa 0,0 l/m 0 min 0 min 0 W/m 25,7 km/h (4 Bft) 100,00 %
16.01.2019 19:58 5,3 C 5,0 C 4,4 C 84 % 1002,2 hPa 0,0 l/m 0 min 0 min 0 W/m 16,1 km/h (3 Bft) 100,00 %
16.01.2019 20:00 5,4 C 5,0 C 4,4 C 84 % 1002,2 hPa 0,0 l/m 0 min 0 min 0 W/m 25,7 km/h (4 Bft) 100,00 %
16.01.2019 20:05 5,4 C 5,0 C 4,4 C 84 % 1002,4 hPa 0,0 l/m 0 min 0 min 0 W/m 29,0 km/h (5 Bft) 100,00 %
16.01.2019 20:10 5,4 C 5,0 C 4,4 C 84 % 1002,2 hPa 0,0 l/m 0 min 0 min 0 W/m 25,7 km/h (4 Bft) 100,00 %
16.01.2019 20:16 5,5 C 5,0 C 4,4 C 83 % 1002,1 hPa 0,0 l/m 0 min 0 min 0 W/m 19,3 km/h (3 Bft) 100,00 %
16.01.2019 20:18 5,5 C 5,0 C 4,4 C 83 % 1002,0 hPa 0,0 l/m 0 min 0 min 0 W/m 25,7 km/h (4 Bft) 97,87 %
16.01.2019 20:20 5,5 C 5,0 C 4,4 C 83 % 1002,0 hPa 0,0 l/m 0 min 0 min 0 W/m 35,4 km/h (5 Bft) 98,15 %
16.01.2019 20:22 5,6 C 5,0 C 4,4 C 83 % 1001,9 hPa 0,0 l/m 0 min 0 min 0 W/m 29,0 km/h (5 Bft) 98,00 %
16.01.2019 20:24 5,5 C 5,0 C 4,4 C 83 % 1001,9 hPa 0,0 l/m 0 min 0 min 0 W/m 19,3 km/h (3 Bft) 97,92 %
16.01.2019 20:26 5,5 C 5,0 C 4,4 C 83 % 1001,9 hPa 0,0 l/m 0 min 0 min 0 W/m 19,3 km/h (3 Bft) 100,00 %
16.01.2019 20:28 5,6 C 5,0 C 4,4 C 83 % 1001,9 hPa 0,0 l/m 0 min 0 min 0 W/m 25,7 km/h (4 Bft) 100,00 %
16.01.2019 20:30 5,6 C 5,0 C 4,4 C 83 % 1001,9 hPa 0,0 l/m 0 min 0 min 0 W/m 19,3 km/h (3 Bft) 98,00 %
16.01.2019 20:32 5,5 C 5,0 C 4,4 C 83 % 1001,8 hPa 0,0 l/m 0 min 0 min 0 W/m 25,7 km/h (4 Bft) 97,92 %
16.01.2019 20:34 5,6 C 5,0 C 4,4 C 82 % 1001,7 hPa 0,0 l/m 0 min 0 min 0 W/m 16,1 km/h (3 Bft) 97,22 %
16.01.2019 20:36 5,6 C 5,0 C 4,4 C 82 % 1001,7 hPa 0,0 l/m 0 min 0 min 0 W/m 29,0 km/h (5 Bft) 96,30 %
16.01.2019 20:38 5,6 C 5,0 C 4,4 C 82 % 1001,8 hPa 0,0 l/m 0 min 0 min 0 W/m 29,0 km/h (5 Bft) 97,83 %
16.01.2019 20:40 5,6 C 5,0 C 4,4 C 82 % 1001,8 hPa 0,0 l/m 0 min 0 min 0 W/m 22,5 km/h (4 Bft) 98,00 %
16.01.2019 20:42 5,6 C 5,0 C 4,4 C 82 % 1001,7 hPa 0,0 l/m 0 min 0 min 0 W/m 25,7 km/h (4 Bft) 95,83 %
16.01.2019 20:44 5,5 C 5,0 C 4,4 C 82 % 1001,6 hPa 0,0 l/m 0 min 0 min 0 W/m 22,5 km/h (4 Bft) 97,22 %
16.01.2019 20:46 5,5 C 5,0 C 4,4 C 82 % 1001,7 hPa 0,0 l/m 0 min 0 min 0 W/m 16,1 km/h (3 Bft) 94,44 %
16.01.2019 20:48 5,5 C 5,0 C 4,4 C 82 % 1001,7 hPa 0,0 l/m 0 min 0 min 0 W/m 16,1 km/h (3 Bft) 94,00 %
16.01.2019 20:50 5,5 C 5,0 C 4,4 C 82 % 1001,7 hPa 0,0 l/m 0 min 0 min 0 W/m 22,5 km/h (4 Bft) 95,83 %
16.01.2019 20:52 5,6 C 5,0 C 4,4 C 82 % 1001,7 hPa 0,0 l/m 0 min 0 min 0 W/m 35,4 km/h (5 Bft) 94,29 %
16.01.2019 20:54 5,5 C 5,0 C 4,4 C 82 % 1001,6 hPa 0,0 l/m 0 min 0 min 0 W/m 29,0 km/h (5 Bft) 98,15 %
16.01.2019 20:56 5,6 C 5,0 C 4,4 C 82 % 1001,6 hPa 0,0 l/m 0 min 0 min 0 W/m 32,2 km/h (5 Bft) 96,00 %
16.01.2019 20:58 5,6 C 5,0 C 4,4 C 82 % 1001,6 hPa 0,0 l/m 0 min 0 min 0 W/m 25,7 km/h (4 Bft) 95,83 %
16.01.2019 21:00 5,6 C 5,0 C 4,4 C 82 % 1001,5 hPa 0,0 l/m 0 min 0 min 0 W/m 25,7 km/h (4 Bft) 91,43 %
16.01.2019 21:02 5,6 C 5,0 C 4,4 C 82 % 1001,5 hPa 0,0 l/m 0 min 0 min 0 W/m 35,4 km/h (5 Bft) 96,30 %
16.01.2019 21:04 5,6 C 5,0 C 4,4 C 82 % 1001,6 hPa 0,0 l/m 0 min 0 min 0 W/m 32,2 km/h (5 Bft) 96,00 %
16.01.2019 21:06 5,6 C 5,0 C 4,4 C 82 % 1001,6 hPa 0,0 l/m 0 min 0 min 0 W/m 29,0 km/h (5 Bft) 95,83 %
16.01.2019 21:08 5,6 C 5,0 C 4,4 C 82 % 1001,6 hPa 0,0 l/m 0 min 0 min 0 W/m 25,7 km/h (4 Bft) 95,74 %
16.01.2019 21:10 5,6 C 5,0 C 4,4 C 82 % 1001,6 hPa 0,0 l/m 0 min 0 min 0 W/m 25,7 km/h (4 Bft) 95,74 %
16.01.2019 21:12 5,6 C 5,0 C 4,4 C 82 % 1001,6 hPa 0,0 l/m 0 min 0 min 0 W/m 25,7 km/h (4 Bft) 94,29 %
16.01.2019 21:14 5,6 C 5,0 C 4,4 C 82 % 1001,6 hPa 0,0 l/m 0 min 0 min 0 W/m 16,1 km/h (3 Bft) 96,30 %
16.01.2019 21:16 5,6 C 5,0 C 4,4 C 82 % 1001,6 hPa 0,0 l/m 0 min 0 min 0 W/m 12,9 km/h (3 Bft) 96,00 %
16.01.2019 21:18 5,6 C 5,0 C 4,4 C 82 % 1001,7 hPa 0,0 l/m 0 min 0 min 0 W/m 19,3 km/h (3 Bft) 95,83 %
16.01.2019 21:20 5,6 C 5,0 C 4,4 C 82 % 1001,6 hPa 0,0 l/m 0 min 0 min 0 W/m 19,3 km/h (3 Bft) 97,14 %
16.01.2019 21:22 5,6 C 5,0 C 4,4 C 82 % 1001,6 hPa 0,0 l/m 0 min 0 min 0 W/m 25,7 km/h (4 Bft) 98,18 %
16.01.2019 21:24 5,6 C 5,0 C 4,4 C 82 % 1001,4 hPa 0,0 l/m 0 min 0 min 0 W/m 22,5 km/h (4 Bft) 96,00 %
16.01.2019 21:26 5,5 C 5,0 C 4,4 C 82 % 1001,5 hPa 0,0 l/m 0 min 0 min 0 W/m 25,7 km/h (4 Bft) 93,75 %
16.01.2019 21:28 5,5 C 5,0 C 4,4 C 82 % 1001,4 hPa 0,0 l/m 0 min 0 min 0 W/m 19,3 km/h (3 Bft) 100,00 %
16.01.2019 21:30 5,5 C 5,0 C 4,4 C 82 % 1001,4 hPa 0,0 l/m 0 min 0 min 0 W/m 22,5 km/h (4 Bft) 94,44 %
16.01.2019 21:32 5,5 C 5,0 C 4,4 C 82 % 1001,4 hPa 0,0 l/m 0 min 0 min 0 W/m 19,3 km/h (3 Bft) 98,00 %
16.01.2019 21:34 5,6 C 5,0 C 4,4 C 82 % 1001,3 hPa 0,0 l/m 0 min 0 min 0 W/m 25,7 km/h (4 Bft) 97,92 %
16.01.2019 21:36 5,5 C 5,0 C 4,4 C 82 % 1001,3 hPa 0,0 l/m 0 min 0 min 0 W/m 29,0 km/h (5 Bft) 95,74 %
16.01.2019 21:38 5,5 C 5,0 C 4,4 C 82 % 1001,3 hPa 0,0 l/m 0 min 0 min 0 W/m 19,3 km/h (3 Bft) 97,14 %
16.01.2019 21:40 5,5 C 5,0 C 4,4 C 82 % 1001,2 hPa 0,0 l/m 0 min 0 min 0 W/m 25,7 km/h (4 Bft) 93,62 %
16.01.2019 21:42 5,5 C 5,0 C 4,4 C 82 % 1001,3 hPa 0,0 l/m 0 min 0 min 0 W/m 25,7 km/h (4 Bft) 96,30 %
16.01.2019 21:44 5,5 C 5,0 C 4,4 C 83 % 1001,3 hPa 0,0 l/m 0 min 0 min 0 W/m 19,3 km/h (3 Bft) 94,00 %
16.01.2019 21:46 5,5 C 5,0 C 4,4 C 83 % 1001,3 hPa 0,0 l/m 0 min 0 min 0 W/m 19,3 km/h (3 Bft) 95,83 %
16.01.2019 21:48 5,5 C 5,0 C 4,4 C 83 % 1001,2 hPa 0,0 l/m 0 min 0 min 0 W/m 19,3 km/h (3 Bft) 97,14 %
16.01.2019 21:50 5,5 C 5,0 C 4,4 C 83 % 1001,3 hPa 0,0 l/m 0 min 0 min 0 W/m 19,3 km/h (3 Bft) 96,30 %
16.01.2019 21:52 5,5 C 5,0 C 4,4 C 83 % 1001,2 hPa 0,0 l/m 0 min 0 min 0 W/m 12,9 km/h (3 Bft) 98,00 %
16.01.2019 21:54 5,5 C 5,0 C 4,4 C 83 % 1001,3 hPa 0,0 l/m 0 min 0 min 0 W/m 16,1 km/h (3 Bft) 95,83 %
16.01.2019 21:56 5,5 C 5,0 C 4,4 C 83 % 1001,3 hPa 0,0 l/m 0 min 0 min 0 W/m 16,1 km/h (3 Bft) 100,00 %
16.01.2019 21:58 5,5 C 5,0 C 4,4 C 83 % 1001,2 hPa 0,0 l/m 0 min 0 min 0 W/m 16,1 km/h (3 Bft) 96,36 %
16.01.2019 22:00 5,5 C 5,0 C 4,4 C 83 % 1001,2 hPa 0,0 l/m 0 min 0 min 0 W/m 29,0 km/h (5 Bft) 95,92 %
16.01.2019 22:02 5,5 C 5,0 C 4,4 C 83 % 1001,2 hPa 0,0 l/m 0 min 0 min 0 W/m 22,5 km/h (4 Bft) 93,88 %
16.01.2019 22:04 5,5 C 5,0 C 4,4 C 83 % 1001,2 hPa 0,0 l/m 0 min 0 min 0 W/m 16,1 km/h (3 Bft) 94,29 %
16.01.2019 22:06 5,5 C 5,0 C 4,4 C 83 % 1001,2 hPa 0,0 l/m 0 min 0 min 0 W/m 19,3 km/h (3 Bft) 98,15 %
16.01.2019 22:08 5,5 C 5,0 C 4,4 C 83 % 1001,2 hPa 0,0 l/m 0 min 0 min 0 W/m 22,5 km/h (4 Bft) 95,74 %
16.01.2019 22:10 5,5 C 5,0 C 4,4 C 83 % 1001,3 hPa 0,0 l/m 0 min 0 min 0 W/m 16,1 km/h (3 Bft) 95,74 %
16.01.2019 22:12 5,5 C 5,0 C 4,4 C 83 % 1001,2 hPa 0,0 l/m 0 min 0 min 0 W/m 16,1 km/h (3 Bft) 95,92 %
16.01.2019 22:14 5,5 C 5,0 C 4,4 C 84 % 1001,2 hPa 0,0 l/m 0 min 0 min 0 W/m 22,5 km/h (4 Bft) 97,96 %
16.01.2019 22:16 5,5 C 5,0 C 4,4 C 84 % 1001,2 hPa 0,0 l/m 0 min 0 min 0 W/m 25,7 km/h (4 Bft) 97,14 %
16.01.2019 22:18 5,5 C 5,0 C 4,4 C 84 % 1001,1 hPa 0,0 l/m 0 min 0 min 0 W/m 16,1 km/h (3 Bft) 98,15 %
16.01.2019 22:20 5,5 C 5,0 C 4,4 C 84 % 1001,1 hPa 0,0 l/m 0 min 0 min 0 W/m 22,5 km/h (4 Bft) 98,00 %
16.01.2019 22:22 5,5 C 5,0 C 4,4 C 84 % 1001,1 hPa 0,0 l/m 0 min 0 min 0 W/m 35,4 km/h (5 Bft) 100,00 %
16.01.2019 22:24 5,5 C 5,0 C 4,4 C 84 % 1001,1 hPa 0,0 l/m 0 min 0 min 0 W/m 29,0 km/h (5 Bft) 97,14 %
16.01.2019 22:26 5,6 C 5,0 C 4,4 C 84 % 1001,0 hPa 0,0 l/m 0 min 0 min 0 W/m 22,5 km/h (4 Bft) 100,00 %
16.01.2019 22:28 5,6 C 5,0 C 4,4 C 84 % 1000,9 hPa 0,0 l/m 0 min 0 min 0 W/m 19,3 km/h (3 Bft) 100,00 %
16.01.2019 22:30 5,5 C 5,0 C 4,4 C 84 % 1000,8 hPa 0,0 l/m 0 min 0 min 0 W/m 19,3 km/h (3 Bft) 100,00 %
16.01.2019 22:32 5,6 C 5,0 C 4,4 C 84 % 1000,9 hPa 0,0 l/m 0 min 0 min 0 W/m 19,3 km/h (3 Bft) 100,00 %
16.01.2019 22:34 5,6 C 5,0 C 4,4 C 84 % 1001,0 hPa 0,0 l/m 0 min 0 min 0 W/m 22,5 km/h (4 Bft) 96,36 %
16.01.2019 22:36 5,6 C 5,0 C 4,4 C 84 % 1000,9 hPa 0,0 l/m 0 min 0 min 0 W/m 25,7 km/h (4 Bft) 97,96 %
16.01.2019 22:38 5,6 C 5,0 C 4,4 C 84 % 1000,9 hPa 0,0 l/m 0 min 0 min 0 W/m 22,5 km/h (4 Bft) 100,00 %
16.01.2019 22:40 5,6 C 5,0 C 4,4 C 84 % 1000,9 hPa 0,0 l/m 0 min 0 min 0 W/m 22,5 km/h (4 Bft) 100,00 %
16.01.2019 22:42 5,6 C 5,0 C 4,4 C 84 % 1001,0 hPa 0,0 l/m 0 min 0 min 0 W/m 22,5 km/h (4 Bft) 97,92 %
16.01.2019 22:44 5,6 C 5,0 C 4,4 C 84 % 1000,9 hPa 0,0 l/m 0 min 0 min 0 W/m 25,7 km/h (4 Bft) 100,00 %
16.01.2019 22:46 5,6 C 5,0 C 4,4 C 84 % 1000,8 hPa 0,0 l/m 0 min 0 min 0 W/m 38,6 km/h (5 Bft) 100,00 %
16.01.2019 22:48 5,6 C 5,0 C 4,4 C 84 % 1000,7 hPa 0,0 l/m 0 min 0 min 0 W/m 29,0 km/h (5 Bft) 100,00 %
16.01.2019 22:50 5,6 C 5,0 C 4,4 C 84 % 1000,7 hPa 0,0 l/m 0 min 0 min 0 W/m 25,7 km/h (4 Bft) 100,00 %
16.01.2019 22:52 5,6 C 5,0 C 4,4 C 84 % 1000,7 hPa 0,0 l/m 0 min 0 min 0 W/m 29,0 km/h (5 Bft) 100,00 %
16.01.2019 22:54 5,6 C 5,0 C 4,4 C 84 % 1000,6 hPa 0,0 l/m 0 min 0 min 0 W/m 45,1 km/h (6 Bft) 100,00 %
16.01.2019 22:56 5,7 C 5,0 C 4,4 C 84 % 1000,6 hPa 0,0 l/m 0 min 0 min 0 W/m 22,5 km/h (4 Bft) 100,00 %
16.01.2019 22:58 5,7 C 5,0 C 4,4 C 84 % 1000,6 hPa 0,0 l/m 0 min 0 min 0 W/m 32,2 km/h (5 Bft) 97,92 %
16.01.2019 23:00 5,7 C 5,0 C 4,4 C 84 % 1000,7 hPa 0,0 l/m 0 min 0 min 0 W/m 35,4 km/h (5 Bft) 100,00 %
16.01.2019 23:02 5,7 C 5,6 C 4,4 C 84 % 1000,7 hPa 0,0 l/m 0 min 0 min 0 W/m 32,2 km/h (5 Bft) 100,00 %
16.01.2019 23:04 5,7 C 5,6 C 4,4 C 84 % 1000,6 hPa 0,0 l/m 0 min 0 min 0 W/m 38,6 km/h (5 Bft) 100,00 %
16.01.2019 23:06 5,7 C 5,6 C 4,4 C 84 % 1000,7 hPa 0,0 l/m 0 min 0 min 0 W/m 29,0 km/h (5 Bft) 100,00 %
16.01.2019 23:08 5,7 C 5,0 C 4,4 C 84 % 1000,7 hPa 0,0 l/m 0 min 0 min 0 W/m 29,0 km/h (5 Bft) 97,14 %
16.01.2019 23:10 5,7 C 5,6 C 4,4 C 84 % 1000,7 hPa 0,0 l/m 0 min 0 min 0 W/m 35,4 km/h (5 Bft) 100,00 %
16.01.2019 23:12 5,7 C 5,0 C 4,4 C 84 % 1000,6 hPa 0,0 l/m 0 min 0 min 0 W/m 22,5 km/h (4 Bft) 100,00 %
16.01.2019 23:14 5,7 C 5,0 C 4,4 C 84 % 1000,6 hPa 0,0 l/m 0 min 0 min 0 W/m 22,5 km/h (4 Bft) 100,00 %
16.01.2019 23:16 5,7 C 5,0 C 4,4 C 84 % 1000,5 hPa 0,0 l/m 0 min 0 min 0 W/m 25,7 km/h (4 Bft) 100,00 %
16.01.2019 23:18 5,7 C 5,6 C 4,4 C 84 % 1000,7 hPa 0,0 l/m 0 min 0 min 0 W/m 41,8 km/h (6 Bft) 97,87 %
16.01.2019 23:20 5,7 C 5,6 C 5,0 C 84 % 1000,7 hPa 0,0 l/m 0 min 0 min 0 W/m 41,8 km/h (6 Bft) 97,87 %
16.01.2019 23:22 5,7 C 5,6 C 5,0 C 84 % 1000,6 hPa 0,0 l/m 0 min 0 min 0 W/m 38,6 km/h (5 Bft) 97,87 %
16.01.2019 23:24 5,8 C 5,6 C 5,0 C 84 % 1000,6 hPa 0,0 l/m 0 min 0 min 0 W/m 29,0 km/h (5 Bft) 95,74 %
16.01.2019 23:26 5,8 C 5,6 C 5,0 C 84 % 1000,6 hPa 0,0 l/m 0 min 0 min 0 W/m 29,0 km/h (5 Bft) 97,87 %
16.01.2019 23:28 5,8 C 5,6 C 5,0 C 84 % 1000,5 hPa 0,0 l/m 0 min 0 min 0 W/m 29,0 km/h (5 Bft) 97,83 %
16.01.2019 23:30 5,8 C 5,6 C 5,0 C 84 % 1000,7 hPa 0,0 l/m 0 min 0 min 0 W/m 25,7 km/h (4 Bft) 91,49 %
16.01.2019 23:32 5,8 C 5,6 C 4,4 C 84 % 1000,5 hPa 0,0 l/m 0 min 0 min 0 W/m 19,3 km/h (3 Bft) 97,87 %
16.01.2019 23:34 5,8 C 5,6 C 4,4 C 84 % 1000,6 hPa 0,0 l/m 0 min 0 min 0 W/m 22,5 km/h (4 Bft) 97,87 %
16.01.2019 23:36 5,8 C 5,6 C 4,4 C 84 % 1000,5 hPa 0,0 l/m 0 min 0 min 0 W/m 38,6 km/h (5 Bft) 96,61 %
16.01.2019 23:38 5,8 C 5,6 C 5,0 C 84 % 1000,6 hPa 0,0 l/m 0 min 0 min 0 W/m 29,0 km/h (5 Bft) 97,14 %
16.01.2019 23:40 5,8 C 5,6 C 5,0 C 84 % 1000,4 hPa 0,0 l/m 0 min 0 min 0 W/m 41,8 km/h (6 Bft) 97,83 %
16.01.2019 23:42 5,8 C 5,6 C 5,0 C 84 % 1000,6 hPa 0,0 l/m 0 min 0 min 0 W/m 25,7 km/h (4 Bft) 97,87 %
16.01.2019 23:44 5,8 C 5,6 C 5,0 C 84 % 1000,5 hPa 0,0 l/m 0 min 0 min 0 W/m 29,0 km/h (5 Bft) 97,87 %
16.01.2019 23:46 5,8 C 5,6 C 5,0 C 84 % 1000,4 hPa 0,0 l/m 0 min 0 min 0 W/m 25,7 km/h (4 Bft) 97,87 %
16.01.2019 23:48 5,8 C 5,6 C 5,0 C 84 % 1000,4 hPa 0,0 l/m 0 min 0 min 0 W/m 25,7 km/h (4 Bft) 100,00 %
16.01.2019 23:50 5,8 C 5,6 C 5,0 C 84 % 1000,5 hPa 0,0 l/m 0 min 0 min 0 W/m 32,2 km/h (5 Bft) 97,87 %
16.01.2019 23:52 5,8 C 5,6 C 4,4 C 84 % 1000,5 hPa 0,0 l/m 0 min 0 min 0 W/m 32,2 km/h (5 Bft) 97,83 %
16.01.2019 23:54 5,8 C 5,6 C 4,4 C 84 % 1000,5 hPa 0,0 l/m 0 min 0 min 0 W/m 29,0 km/h (5 Bft) 97,87 %
16.01.2019 23:56 5,8 C 5,0 C 4,4 C 84 % 1000,4 hPa 0,0 l/m 0 min 2 min 0 W/m 32,2 km/h (5 Bft) 95,74 %
16.01.2019 23:58 5,8 C 4,4 C 4,4 C 84 % 1000,4 hPa 0,0 l/m 0 min 2 min 0 W/m 25,7 km/h (4 Bft) 97,87 %
_ Min-Zeit 18:52 17:46 17:42 12:20 23:40 - - - - 17:42 01:02
Minimum _ 4,4 C 3,9 C 3,3 C 81 % 1000,4 hPa - - - - 6,4 km/h (2 Bft) 89,36 %
_ Max-Zeit 00:36 00:00 12:14 02:06 00:00 00:00 00:00 23:56 12:20 10:58 00:00
Maximum _ 6,5 C 6,1 C 6,1 C 94 % 1013,6 hPa 0,0 l/m 0 min 2 min 125 W/m 45,1 km/h
S-SO (6 Bft)
100,00 %
Durchschnitt _ 5,8 C 5,4 C 4,8 C 86 % 1007,4 hPa #0,0 l/m #0 min. #4 min. 45 W/m 21,1 km/h (4 Bft) 97,41 %
© 2019 W. Hausmann